Time,TemperatureF,DewpointF,PressureIn,WindDirection,WindDirectionDegrees,WindSpeedMPH,WindSpeedGustMPH,Humidity,HourlyPrecipIn,Conditions,Clouds,dailyrainin,SoftwareType,DateUTC
2013-11-10 00:00:00,39.7,29.7,30.03,East,90,4.0,8.0,67,0.00,,---,0.00,VWS V14.01,2013-11-10 05:00:00,
2013-11-10 00:01:00,39.7,29.7,30.03,ESE,106,4.0,4.0,67,0.00,,---,0.00,VWS V14.01,2013-11-10 05:01:00,
2013-11-10 00:02:00,39.6,29.6,30.03,ESE,103,5.0,5.0,67,0.00,,---,0.00,VWS V14.01,2013-11-10 05:02:00,
2013-11-10 00:03:00,39.6,29.6,30.03,ESE,115,4.0,6.0,67,0.00,,---,0.00,VWS V14.01,2013-11-10 05:03:00,
2013-11-10 00:06:00,39.6,29.9,30.02,East,101,6.0,7.0,68,0.00,,---,0.00,VWS V14.01,2013-11-10 05:06:00,
2013-11-10 00:07:00,39.7,30.4,30.02,ESE,103,5.0,7.0,69,0.00,,---,0.00,VWS V14.01,2013-11-10 05:07:00,
2013-11-10 00:08:00,39.6,29.9,30.02,East,93,4.0,7.0,68,0.00,,---,0.00,VWS V14.01,2013-11-10 05:08:00,
2013-11-10 00:09:00,39.7,30.7,30.02,East,92,4.0,7.0,70,0.00,,---,0.00,VWS V14.01,2013-11-10 05:09:00,
2013-11-10 00:11:00,39.7,30.4,30.02,ENE,75,3.0,7.0,69,0.00,,---,0.00,VWS V14.01,2013-11-10 05:11:00,
2013-11-10 00:12:00,39.7,30.4,30.02,East,81,4.0,7.0,69,0.00,,---,0.00,VWS V14.01,2013-11-10 05:12:00,
2013-11-10 00:13:00,39.6,30.3,30.02,East,82,3.0,7.0,69,0.00,,---,0.00,VWS V14.01,2013-11-10 05:13:00,
2013-11-10 00:14:00,39.6,29.9,30.02,East,92,3.0,7.0,68,0.00,,---,0.00,VWS V14.01,2013-11-10 05:14:00,
2013-11-10 00:16:00,39.6,30.3,30.02,ESE,113,4.0,7.0,69,0.00,,---,0.00,VWS V14.01,2013-11-10 05:16:00,
2013-11-10 00:17:00,39.6,30.3,30.02,East,94,4.0,7.0,69,0.00,,---,0.00,VWS V14.01,2013-11-10 05:17:00,
2013-11-10 00:18:00,39.6,30.3,30.02,ENE,72,3.0,7.0,69,0.00,,---,0.00,VWS V14.01,2013-11-10 05:18:00,
2013-11-10 00:20:00,39.6,29.9,30.02,ESE,113,3.0,7.0,68,0.00,,---,0.00,VWS V14.01,2013-11-10 05:20:00,
2013-11-10 00:22:00,39.6,30.3,30.02,East,80,4.0,7.0,69,0.00,,---,0.00,VWS V14.01,2013-11-10 05:22:00,
2013-11-10 00:23:00,39.6,30.6,30.02,East,101,2.0,7.0,70,0.00,,---,0.00,VWS V14.01,2013-11-10 05:23:00,
2013-11-10 00:24:00,39.6,30.3,30.01,East,100,1.0,7.0,69,0.00,,---,0.00,VWS V14.01,2013-11-10 05:24:00,
2013-11-10 00:25:00,39.6,30.3,30.02,East,92,1.0,7.0,69,0.00,,---,0.00,VWS V14.01,2013-11-10 05:25:00,
2013-11-10 00:26:00,39.6,30.3,30.02,East,91,1.0,7.0,69,0.00,,---,0.00,VWS V14.01,2013-11-10 05:26:00,
2013-11-10 00:27:00,39.6,30.6,30.01,ESE,103,2.0,7.0,70,0.00,,---,0.00,VWS V14.01,2013-11-10 05:27:00,
2013-11-10 00:29:00,39.6,30.3,30.01,ESE,103,1.0,7.0,69,0.00,,---,0.00,VWS V14.01,2013-11-10 05:29:00,
2013-11-10 00:31:00,39.6,30.6,30.01,East,84,3.0,3.0,70,0.00,,---,0.00,VWS V14.01,2013-11-10 05:31:00,
2013-11-10 00:32:00,39.7,31.1,30.01,East,96,3.0,3.0,71,0.00,,---,0.00,VWS V14.01,2013-11-10 05:32:00,
2013-11-10 00:33:00,39.7,30.4,30.01,NE,48,2.0,3.0,69,0.00,,---,0.00,VWS V14.01,2013-11-10 05:33:00,
2013-11-10 00:34:00,39.7,30.4,30.01,NE,51,0.0,3.0,69,0.00,,---,0.00,VWS V14.01,2013-11-10 05:34:00,
2013-11-10 00:36:00,39.7,30.4,30.01,SSE,160,0.0,3.0,69,0.00,,---,0.00,VWS V14.01,2013-11-10 05:36:00,
2013-11-10 00:38:00,39.7,30.7,30.01,East,97,0.0,3.0,70,0.00,,---,0.00,VWS V14.01,2013-11-10 05:38:00,
2013-11-10 00:39:00,39.7,30.7,30.01,East,89,0.0,3.0,70,0.00,,---,0.00,VWS V14.01,2013-11-10 05:39:00,
2013-11-10 00:40:00,39.7,30.4,30.01,NNE,15,2.0,3.0,69,0.00,,---,0.00,VWS V14.01,2013-11-10 05:40:00,
2013-11-10 00:41:00,39.6,30.3,30.01,NNE,14,2.0,3.0,69,0.00,,---,0.00,VWS V14.01,2013-11-10 05:41:00,
2013-11-10 00:44:00,39.2,29.9,30.01,North,354,1.0,3.0,69,0.00,,---,0.00,VWS V14.01,2013-11-10 05:44:00,
2013-11-10 00:46:00,38.9,30.0,30.01,North,9,1.0,3.0,70,0.00,,---,0.00,VWS V14.01,2013-11-10 05:46:00,
2013-11-10 00:47:00,38.7,29.8,30.01,North,9,1.0,3.0,70,0.00,,---,0.00,VWS V14.01,2013-11-10 05:47:00,
2013-11-10 00:48:00,38.7,30.1,30.01,North,9,1.0,3.0,71,0.00,,---,0.00,VWS V14.01,2013-11-10 05:48:00,
2013-11-10 00:49:00,38.5,29.9,30.01,North,9,1.0,3.0,71,0.00,,---,0.00,VWS V14.01,2013-11-10 05:49:00,
2013-11-10 00:50:00,38.5,29.9,30.00,North,9,0.0,3.0,71,0.00,,---,0.00,VWS V14.01,2013-11-10 05:50:00,
2013-11-10 00:51:00,38.4,29.8,30.01,North,8,1.0,3.0,71,0.00,,---,0.00,VWS V14.01,2013-11-10 05:51:00,
2013-11-10 00:53:00,38.3,30.1,30.00,NNE,22,2.0,3.0,72,0.00,,---,0.00,VWS V14.01,2013-11-10 05:53:00,
2013-11-10 00:54:00,38.2,30.0,30.00,NNE,18,1.0,3.0,72,0.00,,---,0.00,VWS V14.01,2013-11-10 05:54:00,
2013-11-10 00:55:00,38.2,30.0,30.00,NNE,16,1.0,3.0,72,0.00,,---,0.00,VWS V14.01,2013-11-10 05:55:00,
2013-11-10 00:56:00,38.1,29.9,30.00,NNE,15,1.0,3.0,72,0.00,,---,0.00,VWS V14.01,2013-11-10 05:56:00,
2013-11-10 00:57:00,38.1,29.9,30.00,NNE,15,1.0,3.0,72,0.00,,---,0.00,VWS V14.01,2013-11-10 05:57:00,
2013-11-10 00:59:00,37.9,29.7,30.00,NNE,13,1.0,3.0,72,0.00,,---,0.00,VWS V14.01,2013-11-10 05:59:00,
2013-11-10 01:00:00,37.9,29.7,30.00,NNE,15,1.0,3.0,72,0.00,,---,0.00,VWS V14.01,2013-11-10 06:00:00,
2013-11-10 01:02:00,37.9,29.7,30.00,North,356,2.0,3.0,72,0.00,,---,0.00,VWS V14.01,2013-11-10 06:02:00,
2013-11-10 01:04:00,37.8,29.6,30.00,North,359,2.0,3.0,72,0.00,,---,0.00,VWS V14.01,2013-11-10 06:04:00,
2013-11-10 01:05:00,37.8,29.6,30.00,North,359,2.0,3.0,72,0.00,,---,0.00,VWS V14.01,2013-11-10 06:05:00,
2013-11-10 01:06:00,37.8,29.6,30.00,North,356,2.0,3.0,72,0.00,,---,0.00,VWS V14.01,2013-11-10 06:06:00,
2013-11-10 01:08:00,37.7,29.5,30.00,NNW,335,1.0,3.0,72,0.00,,---,0.00,VWS V14.01,2013-11-10 06:08:00,
2013-11-10 01:10:00,37.6,29.4,30.00,NNW,331,1.0,3.0,72,0.00,,---,0.00,VWS V14.01,2013-11-10 06:10:00,
2013-11-10 01:14:00,37.6,29.4,30.00,North,356,0.0,3.0,72,0.00,,---,0.00,VWS V14.01,2013-11-10 06:14:00,
2013-11-10 01:15:00,37.5,29.3,30.00,North,352,0.0,3.0,72,0.00,,---,0.00,VWS V14.01,2013-11-10 06:15:00,
2013-11-10 01:16:00,37.5,29.3,30.00,North,352,0.0,3.0,72,0.00,,---,0.00,VWS V14.01,2013-11-10 06:16:00,
2013-11-10 01:17:00,37.5,29.3,30.00,North,352,0.0,3.0,72,0.00,,---,0.00,VWS V14.01,2013-11-10 06:17:00,
2013-11-10 01:19:00,37.5,29.3,30.00,North,352,0.0,3.0,72,0.00,,---,0.00,VWS V14.01,2013-11-10 06:19:00,
2013-11-10 01:21:00,37.5,29.3,30.00,North,351,0.0,3.0,72,0.00,,---,0.00,VWS V14.01,2013-11-10 06:21:00,
2013-11-10 01:22:00,37.5,29.6,29.99,North,352,0.0,3.0,73,0.00,,---,0.00,VWS V14.01,2013-11-10 06:22:00,
2013-11-10 01:24:00,37.6,30.1,30.00,NE,39,3.0,7.0,74,0.00,,---,0.00,VWS V14.01,2013-11-10 06:24:00,
2013-11-10 01:25:00,37.7,30.8,30.00,SE,124,3.0,7.0,76,0.00,,---,0.00,VWS V14.01,2013-11-10 06:25:00,
2013-11-10 01:27:00,38.2,31.0,29.99,SE,135,3.0,9.0,75,0.00,,---,0.00,VWS V14.01,2013-11-10 06:27:00,
2013-11-10 01:28:00,38.3,31.1,29.99,ENE,65,6.0,9.0,75,0.00,,---,0.00,VWS V14.01,2013-11-10 06:28:00,
2013-11-10 01:29:00,38.5,31.9,29.99,ESE,120,5.0,9.0,77,0.00,,---,0.00,VWS V14.01,2013-11-10 06:29:00,
2013-11-10 01:30:00,38.8,32.5,29.99,ESE,103,4.0,9.0,78,0.00,,---,0.00,VWS V14.01,2013-11-10 06:30:00,
2013-11-10 01:33:00,38.9,32.0,29.99,SW,224,9.0,9.0,76,0.00,,---,0.00,VWS V14.01,2013-11-10 06:33:00,
2013-11-10 01:34:00,39.0,32.4,29.99,South,187,4.0,11.0,77,0.00,,---,0.00,VWS V14.01,2013-11-10 06:34:00,
2013-11-10 01:35:00,38.9,32.3,29.99,South,187,6.0,11.0,77,0.00,,---,0.00,VWS V14.01,2013-11-10 06:35:00,
2013-11-10 01:36:00,38.9,32.3,29.99,SSW,204,3.0,11.0,77,0.00,,---,0.00,VWS V14.01,2013-11-10 06:36:00,
2013-11-10 01:38:00,38.7,32.1,29.99,South,174,1.0,11.0,77,0.00,,---,0.00,VWS V14.01,2013-11-10 06:38:00,
2013-11-10 01:39:00,38.7,32.1,29.99,SE,141,0.0,11.0,77,0.00,,---,0.00,VWS V14.01,2013-11-10 06:39:00,
2013-11-10 01:40:00,38.7,32.1,29.99,SE,136,1.0,11.0,77,0.00,,---,0.00,VWS V14.01,2013-11-10 06:40:00,
2013-11-10 01:42:00,38.6,32.7,29.99,NNE,33,2.0,11.0,79,0.00,,---,0.00,VWS V14.01,2013-11-10 06:42:00,
2013-11-10 01:44:00,38.5,32.2,29.99,SW,229,3.0,11.0,78,0.00,,---,0.00,VWS V14.01,2013-11-10 06:44:00,
2013-11-10 01:45:00,38.5,32.6,29.99,SW,214,4.0,11.0,79,0.00,,---,0.00,VWS V14.01,2013-11-10 06:45:00,
2013-11-10 01:46:00,38.5,32.6,29.99,SE,130,3.0,11.0,79,0.00,,---,0.00,VWS V14.01,2013-11-10 06:46:00,
2013-11-10 01:47:00,38.5,32.9,29.99,South,190,5.0,11.0,80,0.00,,---,0.00,VWS V14.01,2013-11-10 06:47:00,
2013-11-10 01:50:00,38.5,32.6,29.99,SSW,197,2.0,11.0,79,0.00,,---,0.00,VWS V14.01,2013-11-10 06:50:00,
2013-11-10 01:51:00,38.4,32.8,29.99,SW,222,1.0,11.0,80,0.00,,---,0.00,VWS V14.01,2013-11-10 06:51:00,
2013-11-10 01:52:00,38.4,32.8,29.99,SE,129,2.0,11.0,80,0.00,,---,0.00,VWS V14.01,2013-11-10 06:52:00,
2013-11-10 01:53:00,38.4,33.1,29.98,SE,131,5.0,11.0,81,0.00,,---,0.00,VWS V14.01,2013-11-10 06:53:00,
2013-11-10 01:55:00,38.5,32.6,29.98,ESE,121,4.0,11.0,79,0.00,,---,0.00,VWS V14.01,2013-11-10 06:55:00,
2013-11-10 01:56:00,38.4,32.8,29.98,North,5,2.0,11.0,80,0.00,,---,0.00,VWS V14.01,2013-11-10 06:56:00,
2013-11-10 01:57:00,38.4,32.8,29.98,SSW,208,2.0,11.0,80,0.00,,---,0.00,VWS V14.01,2013-11-10 06:57:00,
2013-11-10 01:58:00,38.4,32.8,29.98,SSW,203,3.0,11.0,80,0.00,,---,0.00,VWS V14.01,2013-11-10 06:58:00,
2013-11-10 02:00:00,38.4,32.5,29.98,SE,141,2.0,11.0,79,0.00,,---,0.00,VWS V14.01,2013-11-10 07:00:00,
2013-11-10 02:01:00,38.3,32.4,29.98,SSW,211,2.0,3.0,79,0.00,,---,0.00,VWS V14.01,2013-11-10 07:01:00,
2013-11-10 02:02:00,38.3,32.7,29.98,WSW,252,4.0,4.0,80,0.00,,---,0.00,VWS V14.01,2013-11-10 07:02:00,
2013-11-10 02:03:00,38.3,32.7,29.98,SE,143,5.0,5.0,80,0.00,,---,0.00,VWS V14.01,2013-11-10 07:03:00,
2013-11-10 02:05:00,38.3,32.7,29.98,South,179,2.0,6.0,80,0.00,,---,0.00,VWS V14.01,2013-11-10 07:05:00,
2013-11-10 02:07:00,38.3,33.0,29.98,SSW,210,2.0,6.0,81,0.00,,---,0.00,VWS V14.01,2013-11-10 07:07:00,
2013-11-10 02:08:00,38.2,32.6,29.98,SW,215,4.0,6.0,80,0.00,,---,0.00,VWS V14.01,2013-11-10 07:08:00,
2013-11-10 02:09:00,38.1,32.5,29.98,South,183,0.0,6.0,80,0.00,,---,0.00,VWS V14.01,2013-11-10 07:09:00,
2013-11-10 02:11:00,38.1,32.8,29.98,South,190,2.0,6.0,81,0.00,,---,0.00,VWS V14.01,2013-11-10 07:11:00,
2013-11-10 02:12:00,38.1,32.5,29.98,SSW,194,1.0,6.0,80,0.00,,---,0.00,VWS V14.01,2013-11-10 07:12:00,
2013-11-10 02:13:00,38.1,32.8,29.98,South,184,1.0,6.0,81,0.00,,---,0.00,VWS V14.01,2013-11-10 07:13:00,
2013-11-10 02:14:00,38.1,32.8,29.98,South,173,3.0,6.0,81,0.00,,---,0.00,VWS V14.01,2013-11-10 07:14:00,
2013-11-10 02:17:00,38.1,33.1,29.98,East,101,3.0,6.0,82,0.00,,---,0.00,VWS V14.01,2013-11-10 07:17:00,
2013-11-10 02:19:00,38.1,32.8,29.98,SE,128,3.0,6.0,81,0.00,,---,0.00,VWS V14.01,2013-11-10 07:19:00,
2013-11-10 02:20:00,38.1,32.8,29.98,SE,142,3.0,6.0,81,0.00,,---,0.00,VWS V14.01,2013-11-10 07:20:00,
2013-11-10 02:23:00,38.0,32.7,29.97,SE,130,4.0,6.0,81,0.00,,---,0.00,VWS V14.01,2013-11-10 07:23:00,
2013-11-10 02:24:00,38.0,33.0,29.98,SE,134,3.0,6.0,82,0.00,,---,0.00,VWS V14.01,2013-11-10 07:24:00,
2013-11-10 02:25:00,38.0,33.3,29.97,SSE,160,1.0,6.0,83,0.00,,---,0.00,VWS V14.01,2013-11-10 07:25:00,
2013-11-10 02:27:00,38.0,32.7,29.97,SE,145,1.0,6.0,81,0.00,,---,0.00,VWS V14.01,2013-11-10 07:27:00,
2013-11-10 02:29:00,37.9,32.6,29.97,East,87,5.0,6.0,81,0.00,,---,0.00,VWS V14.01,2013-11-10 07:29:00,
2013-11-10 02:31:00,37.7,32.7,29.97,SE,132,2.0,2.0,82,0.00,,---,0.00,VWS V14.01,2013-11-10 07:31:00,
2013-11-10 02:32:00,37.7,32.7,29.97,South,175,5.0,5.0,82,0.00,,---,0.00,VWS V14.01,2013-11-10 07:32:00,
2013-11-10 02:33:00,37.6,32.9,29.97,East,94,5.0,8.0,83,0.00,,---,0.00,VWS V14.01,2013-11-10 07:33:00,
2013-11-10 02:34:00,37.5,32.8,29.97,ENE,75,2.0,8.0,83,0.00,,---,0.00,VWS V14.01,2013-11-10 07:34:00,
2013-11-10 02:35:00,37.4,32.7,29.97,ENE,71,2.0,8.0,83,0.00,,---,0.00,VWS V14.01,2013-11-10 07:35:00,
2013-11-10 02:37:00,37.1,32.4,29.97,East,85,2.0,8.0,83,0.00,,---,0.00,VWS V14.01,2013-11-10 07:37:00,
2013-11-10 02:38:00,37.0,32.3,29.97,East,85,0.0,8.0,83,0.00,,---,0.00,VWS V14.01,2013-11-10 07:38:00,
2013-11-10 02:39:00,36.9,32.2,29.96,East,90,3.0,8.0,83,0.00,,---,0.00,VWS V14.01,2013-11-10 07:39:00,
2013-11-10 02:41:00,36.7,32.3,29.96,East,96,3.0,8.0,84,0.00,,---,0.00,VWS V14.01,2013-11-10 07:41:00,
2013-11-10 02:42:00,36.6,32.5,29.96,East,92,3.0,8.0,85,0.00,,---,0.00,VWS V14.01,2013-11-10 07:42:00,
2013-11-10 02:43:00,36.6,32.5,29.97,East,95,4.0,8.0,85,0.00,,---,0.00,VWS V14.01,2013-11-10 07:43:00,
2013-11-10 02:44:00,36.5,32.4,29.97,East,87,4.0,8.0,85,0.00,,---,0.00,VWS V14.01,2013-11-10 07:44:00,
2013-11-10 02:46:00,36.3,32.5,29.96,East,79,5.0,8.0,86,0.00,,---,0.00,VWS V14.01,2013-11-10 07:46:00,
2013-11-10 02:47:00,36.2,32.4,29.96,East,79,3.0,8.0,86,0.00,,---,0.00,VWS V14.01,2013-11-10 07:47:00,
2013-11-10 02:48:00,36.1,32.3,29.96,ENE,72,5.0,8.0,86,0.00,,---,0.00,VWS V14.01,2013-11-10 07:48:00,
2013-11-10 02:49:00,36.1,32.6,29.96,ENE,73,3.0,8.0,87,0.00,,---,0.00,VWS V14.01,2013-11-10 07:49:00,
2013-11-10 02:51:00,36.1,32.9,29.96,ENE,75,2.0,8.0,88,0.00,,---,0.00,VWS V14.01,2013-11-10 07:51:00,
2013-11-10 02:53:00,35.9,32.7,29.96,ESE,104,1.0,8.0,88,0.00,,---,0.00,VWS V14.01,2013-11-10 07:53:00,
2013-11-10 02:54:00,35.8,32.6,29.95,ENE,67,2.0,8.0,88,0.00,,---,0.00,VWS V14.01,2013-11-10 07:54:00,
2013-11-10 02:55:00,35.8,32.6,29.95,NE,52,3.0,8.0,88,0.00,,---,0.00,VWS V14.01,2013-11-10 07:55:00,
2013-11-10 02:56:00,35.7,32.5,29.95,ENE,69,2.0,8.0,88,0.00,,---,0.00,VWS V14.01,2013-11-10 07:56:00,
2013-11-10 02:58:00,35.6,32.7,29.95,ENE,65,1.0,8.0,89,0.00,,---,0.00,VWS V14.01,2013-11-10 07:58:00,
2013-11-10 03:01:00,35.5,32.6,29.95,NE,41,0.0,0.0,89,0.00,,---,0.00,VWS V14.01,2013-11-10 08:01:00,
2013-11-10 03:02:00,35.4,32.5,29.95,NE,55,0.0,2.0,89,0.01,,---,0.01,VWS V14.01,2013-11-10 08:02:00,
2013-11-10 03:03:00,35.3,32.4,29.95,NE,46,2.0,2.0,89,0.01,,---,0.01,VWS V14.01,2013-11-10 08:03:00,
2013-11-10 03:04:00,35.3,32.4,29.95,ENE,64,2.0,2.0,89,0.01,,---,0.01,VWS V14.01,2013-11-10 08:04:00,
2013-11-10 03:06:00,35.2,32.6,29.95,ENE,62,0.0,2.0,90,0.01,,---,0.01,VWS V14.01,2013-11-10 08:06:00,
2013-11-10 03:08:00,35.1,32.5,29.94,NE,44,1.0,2.0,90,0.01,,---,0.01,VWS V14.01,2013-11-10 08:08:00,
2013-11-10 03:09:00,35.0,32.4,29.94,NNE,33,1.0,2.0,90,0.01,,---,0.01,VWS V14.01,2013-11-10 08:09:00,
2013-11-10 03:10:00,35.0,32.4,29.94,NNE,32,1.0,2.0,90,0.01,,---,0.01,VWS V14.01,2013-11-10 08:10:00,
2013-11-10 03:12:00,34.9,32.3,29.94,NNE,32,0.0,2.0,90,0.01,,---,0.01,VWS V14.01,2013-11-10 08:12:00,
2013-11-10 03:14:00,34.8,32.2,29.94,NE,34,1.0,2.0,90,0.01,,---,0.01,VWS V14.01,2013-11-10 08:14:00,
2013-11-10 03:15:00,34.8,32.2,29.94,NE,34,1.0,2.0,90,0.01,,---,0.01,VWS V14.01,2013-11-10 08:15:00,
2013-11-10 03:16:00,34.7,32.1,29.94,NE,37,0.0,2.0,90,0.01,,---,0.01,VWS V14.01,2013-11-10 08:16:00,
2013-11-10 03:17:00,34.7,32.1,29.94,NE,37,0.0,2.0,90,0.01,,---,0.01,VWS V14.01,2013-11-10 08:17:00,
2013-11-10 03:19:00,34.6,32.2,29.94,NE,35,1.0,2.0,91,0.01,,---,0.01,VWS V14.01,2013-11-10 08:19:00,
2013-11-10 03:20:00,34.5,32.2,29.94,NE,45,1.0,2.0,91,0.01,,---,0.01,VWS V14.01,2013-11-10 08:20:00,
2013-11-10 03:22:00,34.4,32.0,29.94,ENE,67,0.0,2.0,91,0.01,,---,0.01,VWS V14.01,2013-11-10 08:22:00,
2013-11-10 03:23:00,34.4,32.0,29.94,ENE,67,0.0,2.0,91,0.01,,---,0.01,VWS V14.01,2013-11-10 08:23:00,
2013-11-10 03:25:00,34.3,32.0,29.94,ENE,70,0.0,2.0,91,0.01,,---,0.01,VWS V14.01,2013-11-10 08:25:00,
2013-11-10 03:26:00,34.3,32.0,29.94,NE,40,1.0,2.0,91,0.01,,---,0.01,VWS V14.01,2013-11-10 08:26:00,
2013-11-10 03:27:00,34.3,32.0,29.94,ENE,70,2.0,2.0,91,0.01,,---,0.01,VWS V14.01,2013-11-10 08:27:00,
2013-11-10 03:28:00,34.3,32.2,29.94,NNE,30,1.0,2.0,92,0.01,,---,0.01,VWS V14.01,2013-11-10 08:28:00,
2013-11-10 03:31:00,34.1,32.0,29.94,NE,34,1.0,2.0,92,0.01,,---,0.01,VWS V14.01,2013-11-10 08:31:00,
2013-11-10 03:32:00,34.1,32.0,29.94,NE,34,0.0,2.0,92,0.01,,---,0.01,VWS V14.01,2013-11-10 08:32:00,
2013-11-10 03:34:00,34.1,32.0,29.93,ENE,69,0.0,2.0,92,0.01,,---,0.01,VWS V14.01,2013-11-10 08:34:00,
2013-11-10 03:37:00,34.1,32.3,29.93,NNE,23,1.0,2.0,93,0.01,,---,0.01,VWS V14.01,2013-11-10 08:37:00,
2013-11-10 03:38:00,34.1,32.0,29.93,NNE,23,0.0,2.0,92,0.01,,---,0.01,VWS V14.01,2013-11-10 08:38:00,
2013-11-10 03:39:00,34.1,32.3,29.93,NNE,23,0.0,2.0,93,0.01,,---,0.01,VWS V14.01,2013-11-10 08:39:00,
2013-11-10 03:40:00,34.1,32.3,29.93,NNE,23,0.0,2.0,93,0.01,,---,0.01,VWS V14.01,2013-11-10 08:40:00,
2013-11-10 03:42:00,34.1,32.3,29.93,NNE,23,0.0,2.0,93,0.01,,---,0.01,VWS V14.01,2013-11-10 08:42:00,
2013-11-10 03:45:00,34.1,32.3,29.93,NNE,23,0.0,2.0,93,0.01,,---,0.01,VWS V14.01,2013-11-10 08:45:00,
2013-11-10 03:46:00,34.1,32.3,29.93,NNE,23,0.0,2.0,93,0.01,,---,0.01,VWS V14.01,2013-11-10 08:46:00,
2013-11-10 03:47:00,34.1,32.3,29.93,NNE,23,2.0,2.0,93,0.01,,---,0.01,VWS V14.01,2013-11-10 08:47:00,
2013-11-10 03:48:00,34.1,32.3,29.93,NNE,23,0.0,2.0,93,0.01,,---,0.01,VWS V14.01,2013-11-10 08:48:00,
2013-11-10 03:51:00,34.1,32.3,29.93,NNE,21,0.0,2.0,93,0.01,,---,0.01,VWS V14.01,2013-11-10 08:51:00,
2013-11-10 03:52:00,34.1,32.3,29.93,NNW,339,1.0,2.0,93,0.01,,---,0.01,VWS V14.01,2013-11-10 08:52:00,
2013-11-10 03:53:00,34.1,32.3,29.93,NNW,338,0.0,2.0,93,0.01,,---,0.01,VWS V14.01,2013-11-10 08:53:00,
2013-11-10 03:55:00,34.1,32.3,29.93,NNW,339,0.0,2.0,93,0.01,,---,0.01,VWS V14.01,2013-11-10 08:55:00,
2013-11-10 03:56:00,34.1,32.3,29.93,NNW,338,0.0,2.0,93,0.01,,---,0.01,VWS V14.01,2013-11-10 08:56:00,
2013-11-10 03:57:00,34.1,32.3,29.93,NNW,339,0.0,2.0,93,0.01,,---,0.01,VWS V14.01,2013-11-10 08:57:00,
2013-11-10 03:58:00,34.1,32.3,29.93,NNW,338,0.0,2.0,93,0.01,,---,0.01,VWS V14.01,2013-11-10 08:58:00,
2013-11-10 04:00:00,34.1,32.3,29.93,NNW,339,0.0,2.0,93,0.01,,---,0.01,VWS V14.01,2013-11-10 09:00:00,
2013-11-10 04:01:00,34.1,32.3,29.93,NNW,338,0.0,0.0,93,0.01,,---,0.01,VWS V14.01,2013-11-10 09:01:00,
2013-11-10 04:02:00,34.2,32.4,29.93,NNW,339,0.0,0.0,93,0.01,,---,0.01,VWS V14.01,2013-11-10 09:02:00,
2013-11-10 04:04:00,34.2,32.7,29.93,NNW,339,0.0,0.0,94,0.01,,---,0.01,VWS V14.01,2013-11-10 09:04:00,
2013-11-10 04:05:00,34.3,32.8,29.93,North,11,1.0,1.0,94,0.01,,---,0.01,VWS V14.01,2013-11-10 09:05:00,
2013-11-10 04:06:00,34.3,32.8,29.93,NNE,12,0.0,1.0,94,0.01,,---,0.01,VWS V14.01,2013-11-10 09:06:00,
2013-11-10 04:07:00,34.3,32.8,29.93,North,10,0.0,1.0,94,0.01,,---,0.01,VWS V14.01,2013-11-10 09:07:00,
2013-11-10 04:08:00,34.3,32.8,29.93,North,11,0.0,1.0,94,0.01,,---,0.01,VWS V14.01,2013-11-10 09:08:00,
2013-11-10 04:09:00,34.3,32.8,29.93,North,10,0.0,1.0,94,0.01,,---,0.01,VWS V14.01,2013-11-10 09:09:00,
2013-11-10 04:10:00,34.3,32.8,29.93,North,10,0.0,1.0,94,0.01,,---,0.01,VWS V14.01,2013-11-10 09:10:00,
2013-11-10 04:11:00,34.3,32.8,29.93,North,11,0.0,1.0,94,0.01,,---,0.01,VWS V14.01,2013-11-10 09:11:00,
2013-11-10 04:13:00,34.3,32.8,29.93,North,9,1.0,1.0,94,0.01,,---,0.01,VWS V14.01,2013-11-10 09:13:00,
2013-11-10 04:14:00,34.3,32.8,29.93,NNW,343,1.0,1.0,94,0.01,,---,0.01,VWS V14.01,2013-11-10 09:14:00,
2013-11-10 04:15:00,34.3,32.8,29.93,North,349,1.0,1.0,94,0.01,,---,0.01,VWS V14.01,2013-11-10 09:15:00,
2013-11-10 04:16:00,34.3,32.8,29.93,North,353,1.0,1.0,94,0.02,,---,0.02,VWS V14.01,2013-11-10 09:16:00,
2013-11-10 04:18:00,34.3,32.5,29.93,North,354,1.0,2.0,93,0.02,,---,0.02,VWS V14.01,2013-11-10 09:18:00,
2013-11-10 04:20:00,34.2,32.4,29.93,North,354,0.0,2.0,93,0.02,,---,0.02,VWS V14.01,2013-11-10 09:20:00,
2013-11-10 04:21:00,34.1,32.3,29.92,NNW,348,2.0,2.0,93,0.02,,---,0.02,VWS V14.01,2013-11-10 09:21:00,
2013-11-10 04:24:00,34.1,32.3,29.92,NNW,347,2.0,2.0,93,0.02,,---,0.02,VWS V14.01,2013-11-10 09:24:00,
2013-11-10 04:25:00,34.0,32.2,29.92,North,4,3.0,3.0,93,0.02,,---,0.02,VWS V14.01,2013-11-10 09:25:00,
2013-11-10 04:26:00,34.0,32.2,29.92,North,1,2.0,3.0,93,0.02,,---,0.02,VWS V14.01,2013-11-10 09:26:00,
2013-11-10 04:29:00,34.0,32.5,29.92,North,11,2.0,3.0,94,0.02,,---,0.02,VWS V14.01,2013-11-10 09:29:00,
2013-11-10 04:30:00,34.0,32.5,29.92,NNW,345,1.0,3.0,94,0.02,,---,0.02,VWS V14.01,2013-11-10 09:30:00,
2013-11-10 04:31:00,34.0,32.5,29.92,NNW,347,1.0,1.0,94,0.01,,---,0.02,VWS V14.01,2013-11-10 09:31:00,
2013-11-10 04:34:00,34.0,32.5,29.92,North,359,1.0,2.0,94,0.01,,---,0.02,VWS V14.01,2013-11-10 09:34:00,
2013-11-10 04:36:00,34.0,32.5,29.92,North,360,0.0,2.0,94,0.01,,---,0.02,VWS V14.01,2013-11-10 09:36:00,
2013-11-10 04:37:00,33.9,32.4,29.92,North,356,1.0,2.0,94,0.01,,---,0.02,VWS V14.01,2013-11-10 09:37:00,
2013-11-10 04:38:00,33.9,32.4,29.92,NNW,345,1.0,2.0,94,0.01,,---,0.02,VWS V14.01,2013-11-10 09:38:00,
2013-11-10 04:40:00,33.9,32.4,29.92,NNW,343,1.0,2.0,94,0.01,,---,0.02,VWS V14.01,2013-11-10 09:40:00,
2013-11-10 04:42:00,33.9,32.4,29.92,NNW,338,1.0,2.0,94,0.01,,---,0.02,VWS V14.01,2013-11-10 09:42:00,
2013-11-10 04:43:00,33.9,32.4,29.92,NNW,338,0.0,2.0,94,0.01,,---,0.02,VWS V14.01,2013-11-10 09:43:00,
2013-11-10 04:44:00,33.9,32.4,29.92,NNW,343,1.0,2.0,94,0.01,,---,0.02,VWS V14.01,2013-11-10 09:44:00,
2013-11-10 04:45:00,33.9,32.4,29.92,NNW,343,0.0,2.0,94,0.01,,---,0.02,VWS V14.01,2013-11-10 09:45:00,
2013-11-10 04:47:00,33.8,32.3,29.92,NNW,343,0.0,2.0,94,0.01,,---,0.02,VWS V14.01,2013-11-10 09:47:00,
2013-11-10 04:48:00,33.8,32.3,29.92,North,358,2.0,2.0,94,0.01,,---,0.02,VWS V14.01,2013-11-10 09:48:00,
2013-11-10 04:50:00,33.8,32.3,29.91,NNE,18,0.0,2.0,94,0.01,,---,0.02,VWS V14.01,2013-11-10 09:50:00,
2013-11-10 04:52:00,33.7,32.2,29.91,North,9,0.0,2.0,94,0.01,,---,0.02,VWS V14.01,2013-11-10 09:52:00,
2013-11-10 04:53:00,33.7,32.2,29.91,North,9,0.0,2.0,94,0.01,,---,0.02,VWS V14.01,2013-11-10 09:53:00,
2013-11-10 04:54:00,33.7,32.2,29.91,North,8,0.0,2.0,94,0.01,,---,0.02,VWS V14.01,2013-11-10 09:54:00,
2013-11-10 04:55:00,33.7,32.2,29.91,North,8,0.0,2.0,94,0.01,,---,0.02,VWS V14.01,2013-11-10 09:55:00,
2013-11-10 04:58:00,33.6,32.1,29.91,North,4,1.0,2.0,94,0.01,,---,0.02,VWS V14.01,2013-11-10 09:58:00,
2013-11-10 04:59:00,33.6,32.1,29.91,NNW,338,0.0,2.0,94,0.01,,---,0.02,VWS V14.01,2013-11-10 09:59:00,
2013-11-10 05:00:00,33.6,32.1,29.91,NNE,23,0.0,2.0,94,0.01,,---,0.02,VWS V14.01,2013-11-10 10:00:00,
2013-11-10 05:01:00,33.6,32.1,29.91,North,351,1.0,1.0,94,0.01,,---,0.02,VWS V14.01,2013-11-10 10:01:00,
2013-11-10 05:03:00,33.6,32.1,29.92,North,353,0.0,1.0,94,0.01,,---,0.02,VWS V14.01,2013-11-10 10:03:00,
2013-11-10 05:05:00,33.6,32.1,29.91,North,353,0.0,1.0,94,0.01,,---,0.02,VWS V14.01,2013-11-10 10:05:00,
2013-11-10 05:06:00,33.5,32.0,29.91,North,353,0.0,1.0,94,0.01,,---,0.02,VWS V14.01,2013-11-10 10:06:00,
2013-11-10 05:08:00,33.5,32.0,29.91,NNE,15,0.0,1.0,94,0.01,,---,0.02,VWS V14.01,2013-11-10 10:08:00,
2013-11-10 05:09:00,33.5,32.0,29.91,NNE,14,0.0,1.0,94,0.01,,---,0.02,VWS V14.01,2013-11-10 10:09:00,
2013-11-10 05:10:00,33.5,32.0,29.91,NNE,15,0.0,1.0,94,0.01,,---,0.02,VWS V14.01,2013-11-10 10:10:00,
2013-11-10 05:11:00,33.5,32.0,29.91,NNE,15,0.0,1.0,94,0.01,,---,0.02,VWS V14.01,2013-11-10 10:11:00,
2013-11-10 05:13:00,33.5,32.0,29.90,NNE,20,0.0,2.0,94,0.01,,---,0.02,VWS V14.01,2013-11-10 10:13:00,
2013-11-10 05:14:00,33.5,32.0,29.90,NNE,22,0.0,2.0,94,0.01,,---,0.02,VWS V14.01,2013-11-10 10:14:00,
2013-11-10 05:15:00,33.5,32.0,29.90,NNE,22,0.0,2.0,94,0.01,,---,0.02,VWS V14.01,2013-11-10 10:15:00,
2013-11-10 05:16:00,33.5,32.0,29.90,NNE,22,1.0,2.0,94,0.01,,---,0.02,VWS V14.01,2013-11-10 10:16:00,
2013-11-10 05:18:00,33.5,32.0,29.90,NNE,22,0.0,2.0,94,0.01,,---,0.02,VWS V14.01,2013-11-10 10:18:00,
2013-11-10 05:19:00,33.5,32.0,29.90,NNE,21,0.0,2.0,94,0.01,,---,0.02,VWS V14.01,2013-11-10 10:19:00,
2013-11-10 05:20:00,33.4,31.9,29.90,NNE,20,1.0,2.0,94,0.01,,---,0.02,VWS V14.01,2013-11-10 10:20:00,
2013-11-10 05:21:00,33.5,32.0,29.90,NNE,20,0.0,2.0,94,0.01,,---,0.02,VWS V14.01,2013-11-10 10:21:00,
2013-11-10 05:23:00,33.4,31.9,29.90,NNE,20,0.0,2.0,94,0.01,,---,0.02,VWS V14.01,2013-11-10 10:23:00,
2013-11-10 05:24:00,33.4,31.9,29.90,NNE,20,0.0,2.0,94,0.01,,---,0.02,VWS V14.01,2013-11-10 10:24:00,
2013-11-10 05:25:00,33.4,31.9,29.90,NNE,20,0.0,2.0,94,0.01,,---,0.02,VWS V14.01,2013-11-10 10:25:00,
2013-11-10 05:26:00,33.4,31.9,29.90,NNE,20,0.0,2.0,94,0.01,,---,0.02,VWS V14.01,2013-11-10 10:26:00,
2013-11-10 05:28:00,33.3,31.8,29.90,NNE,20,0.0,2.0,94,0.01,,---,0.02,VWS V14.01,2013-11-10 10:28:00,
2013-11-10 05:29:00,33.3,31.8,29.90,NNE,20,0.0,2.0,94,0.01,,---,0.02,VWS V14.01,2013-11-10 10:29:00,
2013-11-10 05:30:00,33.4,31.9,29.90,NNE,22,0.0,2.0,94,0.01,,---,0.02,VWS V14.01,2013-11-10 10:30:00,
2013-11-10 05:31:00,33.4,31.9,29.90,NNE,22,0.0,0.0,94,0.00,,---,0.02,VWS V14.01,2013-11-10 10:31:00,
2013-11-10 05:33:00,33.3,31.8,29.90,NNE,20,0.0,0.0,94,0.00,,---,0.02,VWS V14.01,2013-11-10 10:33:00,
2013-11-10 05:34:00,33.3,31.8,29.90,NNE,21,0.0,0.0,94,0.00,,---,0.02,VWS V14.01,2013-11-10 10:34:00,
2013-11-10 05:35:00,33.3,31.8,29.90,NNE,21,0.0,1.0,94,0.00,,---,0.02,VWS V14.01,2013-11-10 10:35:00,
2013-11-10 05:36:00,33.3,31.8,29.90,NNE,22,0.0,1.0,94,0.00,,---,0.02,VWS V14.01,2013-11-10 10:36:00,
2013-11-10 05:37:00,33.3,32.0,29.90,NNE,22,0.0,1.0,95,0.00,,---,0.02,VWS V14.01,2013-11-10 10:37:00,
2013-11-10 05:38:00,33.3,32.0,29.90,NNE,22,0.0,1.0,95,0.00,,---,0.02,VWS V14.01,2013-11-10 10:38:00,
2013-11-10 05:39:00,33.3,32.0,29.89,NNE,22,0.0,1.0,95,0.00,,---,0.02,VWS V14.01,2013-11-10 10:39:00,
2013-11-10 05:43:00,33.3,32.0,29.89,NNE,20,0.0,1.0,95,0.00,,---,0.02,VWS V14.01,2013-11-10 10:43:00,
2013-11-10 05:44:00,33.3,32.0,29.89,NNE,20,0.0,1.0,95,0.00,,---,0.02,VWS V14.01,2013-11-10 10:44:00,
2013-11-10 05:45:00,33.3,32.0,29.90,NNE,18,0.0,1.0,95,0.00,,---,0.02,VWS V14.01,2013-11-10 10:45:00,
2013-11-10 05:49:00,33.3,32.0,29.89,NNE,18,0.0,1.0,95,0.00,,---,0.02,VWS V14.01,2013-11-10 10:49:00,
2013-11-10 05:51:00,33.3,32.0,29.89,NNE,18,0.0,1.0,95,0.00,,---,0.02,VWS V14.01,2013-11-10 10:51:00,
2013-11-10 05:52:00,33.3,32.0,29.89,NNE,18,0.0,1.0,95,0.00,,---,0.02,VWS V14.01,2013-11-10 10:52:00,
2013-11-10 05:54:00,33.3,32.0,29.89,NNE,18,0.0,1.0,95,0.00,,---,0.02,VWS V14.01,2013-11-10 10:54:00,
2013-11-10 05:55:00,33.3,32.0,29.89,NNE,18,0.0,1.0,95,0.00,,---,0.02,VWS V14.01,2013-11-10 10:55:00,
2013-11-10 05:57:00,33.3,32.0,29.89,NNE,18,0.0,1.0,95,0.00,,---,0.02,VWS V14.01,2013-11-10 10:57:00,
2013-11-10 05:59:00,33.4,32.1,29.89,NNW,347,1.0,1.0,95,0.00,,---,0.02,VWS V14.01,2013-11-10 10:59:00,
2013-11-10 06:00:00,33.4,32.1,29.89,North,357,1.0,1.0,95,0.00,,---,0.02,VWS V14.01,2013-11-10 11:00:00,
2013-11-10 06:03:00,33.4,32.1,29.89,NNE,15,1.0,1.0,95,0.00,,---,0.02,VWS V14.01,2013-11-10 11:03:00,
2013-11-10 06:04:00,33.4,32.1,29.89,NNE,15,0.0,1.0,95,0.00,,---,0.02,VWS V14.01,2013-11-10 11:04:00,
2013-11-10 06:05:00,33.4,32.1,29.89,North,359,1.0,1.0,95,0.00,,---,0.02,VWS V14.01,2013-11-10 11:05:00,
2013-11-10 06:08:00,33.5,32.2,29.88,NNE,27,0.0,2.0,95,0.00,,---,0.02,VWS V14.01,2013-11-10 11:08:00,
2013-11-10 06:09:00,33.5,32.2,29.88,NNE,27,0.0,2.0,95,0.00,,---,0.02,VWS V14.01,2013-11-10 11:09:00,
2013-11-10 06:10:00,33.5,32.2,29.89,NNE,25,0.0,2.0,95,0.00,,---,0.02,VWS V14.01,2013-11-10 11:10:00,
2013-11-10 06:11:00,33.5,32.2,29.88,NNE,25,1.0,2.0,95,0.00,,---,0.02,VWS V14.01,2013-11-10 11:11:00,
2013-11-10 06:13:00,33.5,32.2,29.88,NNW,345,1.0,2.0,95,0.00,,---,0.02,VWS V14.01,2013-11-10 11:13:00,
2013-11-10 06:14:00,33.5,32.2,29.89,NNW,333,1.0,2.0,95,0.00,,---,0.02,VWS V14.01,2013-11-10 11:14:00,
2013-11-10 06:15:00,33.5,32.2,29.89,NNW,333,1.0,2.0,95,0.00,,---,0.02,VWS V14.01,2013-11-10 11:15:00,
2013-11-10 06:16:00,33.5,32.2,29.89,NNW,333,1.0,2.0,95,0.00,,---,0.02,VWS V14.01,2013-11-10 11:16:00,
2013-11-10 06:17:00,33.5,32.2,29.89,NNW,333,1.0,2.0,95,0.00,,---,0.02,VWS V14.01,2013-11-10 11:17:00,
2013-11-10 06:19:00,33.6,32.3,29.89,NNW,348,1.0,2.0,95,0.01,,---,0.03,VWS V14.01,2013-11-10 11:19:00,
2013-11-10 06:20:00,33.6,32.3,29.89,North,1,2.0,2.0,95,0.01,,---,0.03,VWS V14.01,2013-11-10 11:20:00,
2013-11-10 06:21:00,33.6,32.3,29.89,North,358,1.0,2.0,95,0.01,,---,0.03,VWS V14.01,2013-11-10 11:21:00,
2013-11-10 06:22:00,33.6,32.3,29.88,NNW,345,1.0,2.0,95,0.01,,---,0.03,VWS V14.01,2013-11-10 11:22:00,
2013-11-10 06:24:00,33.6,32.3,29.88,North,8,2.0,3.0,95,0.01,,---,0.03,VWS V14.01,2013-11-10 11:24:00,
2013-11-10 06:25:00,33.6,32.3,29.88,NNE,13,1.0,3.0,95,0.01,,---,0.03,VWS V14.01,2013-11-10 11:25:00,
2013-11-10 06:27:00,33.6,32.3,29.88,NNW,337,2.0,3.0,95,0.01,,---,0.03,VWS V14.01,2013-11-10 11:27:00,
2013-11-10 06:28:00,33.6,32.3,29.88,NNW,345,2.0,3.0,95,0.01,,---,0.03,VWS V14.01,2013-11-10 11:28:00,
2013-11-10 06:29:00,33.6,32.3,29.88,NNE,13,2.0,3.0,95,0.01,,---,0.03,VWS V14.01,2013-11-10 11:29:00,
2013-11-10 06:32:00,33.6,32.3,29.88,North,349,1.0,1.0,95,0.01,,---,0.03,VWS V14.01,2013-11-10 11:32:00,
2013-11-10 06:33:00,33.6,32.3,29.88,North,8,1.0,1.0,95,0.01,,---,0.03,VWS V14.01,2013-11-10 11:33:00,
2013-11-10 06:34:00,33.6,32.3,29.88,North,357,1.0,2.0,95,0.01,,---,0.03,VWS V14.01,2013-11-10 11:34:00,
2013-11-10 06:37:00,33.7,32.4,29.88,NNW,343,2.0,2.0,95,0.01,,---,0.03,VWS V14.01,2013-11-10 11:37:00,
2013-11-10 06:38:00,33.7,32.4,29.88,NNW,343,1.0,2.0,95,0.01,,---,0.03,VWS V14.01,2013-11-10 11:38:00,
2013-11-10 06:39:00,33.6,32.3,29.88,NNW,342,1.0,2.0,95,0.01,,---,0.03,VWS V14.01,2013-11-10 11:39:00,
2013-11-10 06:40:00,33.6,32.3,29.88,NNW,342,1.0,2.0,95,0.01,,---,0.03,VWS V14.01,2013-11-10 11:40:00,
2013-11-10 06:41:00,33.6,32.3,29.88,NNW,342,1.0,2.0,95,0.01,,---,0.03,VWS V14.01,2013-11-10 11:41:00,
2013-11-10 06:43:00,33.6,32.3,29.88,NNW,346,1.0,2.0,95,0.01,,---,0.03,VWS V14.01,2013-11-10 11:43:00,
2013-11-10 06:45:00,33.6,32.3,29.88,North,355,3.0,3.0,95,0.02,,---,0.04,VWS V14.01,2013-11-10 11:45:00,
2013-11-10 06:46:00,33.6,32.3,29.88,North,352,3.0,3.0,95,0.02,,---,0.04,VWS V14.01,2013-11-10 11:46:00,
2013-11-10 06:48:00,33.7,32.4,29.88,NNW,343,1.0,3.0,95,0.02,,---,0.04,VWS V14.01,2013-11-10 11:48:00,
2013-11-10 06:50:00,33.7,32.4,29.88,North,1,2.0,3.0,95,0.02,,---,0.04,VWS V14.01,2013-11-10 11:50:00,
2013-11-10 06:51:00,33.7,32.4,29.88,North,359,1.0,3.0,95,0.02,,---,0.04,VWS V14.01,2013-11-10 11:51:00,
2013-11-10 06:53:00,33.7,32.4,29.88,North,3,1.0,3.0,95,0.02,,---,0.04,VWS V14.01,2013-11-10 11:53:00,
2013-11-10 06:54:00,33.7,32.4,29.87,North,3,0.0,3.0,95,0.02,,---,0.04,VWS V14.01,2013-11-10 11:54:00,
2013-11-10 06:55:00,33.8,32.5,29.87,North,4,1.0,3.0,95,0.02,,---,0.04,VWS V14.01,2013-11-10 11:55:00,
2013-11-10 06:57:00,33.8,32.5,29.87,NNW,348,1.0,3.0,95,0.02,,---,0.04,VWS V14.01,2013-11-10 11:57:00,
2013-11-10 06:59:00,33.8,32.5,29.87,North,352,1.0,3.0,95,0.02,,---,0.04,VWS V14.01,2013-11-10 11:59:00,
2013-11-10 07:00:00,33.9,32.6,29.87,NNW,343,1.0,3.0,95,0.02,,---,0.04,VWS V14.01,2013-11-10 12:00:00,
2013-11-10 07:02:00,33.9,32.6,29.87,North,358,1.0,2.0,95,0.02,,---,0.04,VWS V14.01,2013-11-10 12:02:00,
2013-11-10 07:03:00,33.9,32.6,29.87,North,359,1.0,2.0,95,0.02,,---,0.04,VWS V14.01,2013-11-10 12:03:00,
2013-11-10 07:05:00,33.9,32.6,29.87,NNE,18,1.0,2.0,95,0.02,,---,0.04,VWS V14.01,2013-11-10 12:05:00,
2013-11-10 07:06:00,33.9,32.6,29.87,NNE,18,0.0,2.0,95,0.02,,---,0.04,VWS V14.01,2013-11-10 12:06:00,
2013-11-10 07:07:00,33.8,32.5,29.87,NNE,18,1.0,2.0,95,0.02,,---,0.04,VWS V14.01,2013-11-10 12:07:00,
2013-11-10 07:08:00,33.8,32.5,29.86,NNE,18,1.0,2.0,95,0.02,,---,0.04,VWS V14.01,2013-11-10 12:08:00,
2013-11-10 07:10:00,33.7,32.4,29.86,NNW,347,2.0,2.0,95,0.02,,---,0.04,VWS V14.01,2013-11-10 12:10:00,
2013-11-10 07:11:00,33.7,32.4,29.87,NNW,337,3.0,3.0,95,0.02,,---,0.04,VWS V14.01,2013-11-10 12:11:00,
2013-11-10 07:12:00,33.7,32.4,29.87,NW,320,2.0,3.0,95,0.02,,---,0.04,VWS V14.01,2013-11-10 12:12:00,
2013-11-10 07:13:00,33.7,32.4,29.87,NNW,336,2.0,3.0,95,0.02,,---,0.04,VWS V14.01,2013-11-10 12:13:00,
2013-11-10 07:14:00,33.7,32.4,29.87,North,6,3.0,4.0,95,0.02,,---,0.04,VWS V14.01,2013-11-10 12:14:00,
2013-11-10 07:15:00,33.7,32.4,29.87,NNW,345,3.0,4.0,95,0.02,,---,0.04,VWS V14.01,2013-11-10 12:15:00,
2013-11-10 07:16:00,33.7,32.4,29.87,NNW,345,3.0,4.0,95,0.02,,---,0.04,VWS V14.01,2013-11-10 12:16:00,
2013-11-10 07:17:00,33.7,32.4,29.88,NNW,328,1.0,4.0,95,0.02,,---,0.04,VWS V14.01,2013-11-10 12:17:00,
2013-11-10 07:19:00,33.8,32.5,29.88,NW,313,0.0,4.0,95,0.02,,---,0.04,VWS V14.01,2013-11-10 12:19:00,
2013-11-10 07:20:00,33.8,32.5,29.88,NW,313,0.0,4.0,95,0.02,,---,0.04,VWS V14.01,2013-11-10 12:20:00,
2013-11-10 07:21:00,33.9,32.6,29.88,North,360,2.0,4.0,95,0.02,,---,0.04,VWS V14.01,2013-11-10 12:21:00,
2013-11-10 07:23:00,33.9,32.6,29.87,North,9,1.0,4.0,95,0.02,,---,0.04,VWS V14.01,2013-11-10 12:23:00,
2013-11-10 07:24:00,34.0,33.0,29.87,North,9,0.0,4.0,96,0.02,,---,0.04,VWS V14.01,2013-11-10 12:24:00,
2013-11-10 07:25:00,34.0,33.0,29.87,North,9,0.0,4.0,96,0.02,,---,0.04,VWS V14.01,2013-11-10 12:25:00,
2013-11-10 07:26:00,34.1,33.1,29.87,North,7,0.0,4.0,96,0.02,,---,0.04,VWS V14.01,2013-11-10 12:26:00,
2013-11-10 07:28:00,34.1,33.1,29.87,North,359,1.0,4.0,96,0.02,,---,0.04,VWS V14.01,2013-11-10 12:28:00,
2013-11-10 07:29:00,34.1,33.1,29.87,North,360,2.0,4.0,96,0.02,,---,0.04,VWS V14.01,2013-11-10 12:29:00,
2013-11-10 07:30:00,34.1,33.1,29.87,North,359,1.0,4.0,96,0.03,,---,0.05,VWS V14.01,2013-11-10 12:30:00,
2013-11-10 07:32:00,34.2,32.9,29.87,North,358,0.0,1.0,95,0.02,,---,0.05,VWS V14.01,2013-11-10 12:32:00,
2013-11-10 07:35:00,34.3,33.3,29.86,North,6,1.0,2.0,96,0.02,,---,0.05,VWS V14.01,2013-11-10 12:35:00,
2013-11-10 07:36:00,34.4,33.4,29.86,North,6,1.0,2.0,96,0.02,,---,0.05,VWS V14.01,2013-11-10 12:36:00,
2013-11-10 07:37:00,34.5,33.5,29.86,North,6,0.0,2.0,96,0.02,,---,0.05,VWS V14.01,2013-11-10 12:37:00,
2013-11-10 07:38:00,34.6,33.6,29.86,North,6,0.0,2.0,96,0.02,,---,0.05,VWS V14.01,2013-11-10 12:38:00,
2013-11-10 07:41:00,34.8,33.8,29.86,North,9,2.0,2.0,96,0.02,,---,0.05,VWS V14.01,2013-11-10 12:41:00,
2013-11-10 07:42:00,34.9,33.9,29.86,NNW,343,2.0,2.0,96,0.02,,---,0.05,VWS V14.01,2013-11-10 12:42:00,
2013-11-10 07:43:00,35.1,34.1,29.86,NNW,335,1.0,2.0,96,0.02,,---,0.05,VWS V14.01,2013-11-10 12:43:00,
2013-11-10 07:45:00,35.2,33.9,29.86,NNW,340,1.0,2.0,95,0.02,,---,0.05,VWS V14.01,2013-11-10 12:45:00,
2013-11-10 07:46:00,35.2,33.9,29.86,NNW,333,1.0,2.0,95,0.02,,---,0.05,VWS V14.01,2013-11-10 12:46:00,
2013-11-10 07:47:00,35.3,34.0,29.86,NW,319,1.0,2.0,95,0.02,,---,0.05,VWS V14.01,2013-11-10 12:47:00,
2013-11-10 07:48:00,35.4,34.1,29.86,NW,319,0.0,2.0,95,0.02,,---,0.05,VWS V14.01,2013-11-10 12:48:00,
2013-11-10 07:49:00,35.4,34.1,29.86,NW,319,0.0,2.0,95,0.02,,---,0.05,VWS V14.01,2013-11-10 12:49:00,
2013-11-10 07:52:00,35.6,34.3,29.86,NNE,20,0.0,2.0,95,0.02,,---,0.05,VWS V14.01,2013-11-10 12:52:00,
2013-11-10 07:53:00,35.7,34.4,29.87,NNE,20,0.0,2.0,95,0.02,,---,0.05,VWS V14.01,2013-11-10 12:53:00,
2013-11-10 07:54:00,35.7,34.4,29.87,NNE,20,0.0,2.0,95,0.02,,---,0.05,VWS V14.01,2013-11-10 12:54:00,
2013-11-10 07:57:00,35.9,34.6,29.87,NNE,18,1.0,2.0,95,0.02,,---,0.05,VWS V14.01,2013-11-10 12:57:00,
2013-11-10 07:58:00,35.9,34.6,29.87,NNE,18,1.0,2.0,95,0.02,,---,0.05,VWS V14.01,2013-11-10 12:58:00,
2013-11-10 07:59:00,35.9,34.6,29.87,NNE,18,0.0,2.0,95,0.02,,---,0.05,VWS V14.01,2013-11-10 12:59:00,
2013-11-10 08:00:00,35.8,34.5,29.87,NNE,18,2.0,2.0,95,0.02,,---,0.05,VWS V14.01,2013-11-10 13:00:00,
2013-11-10 08:03:00,35.8,34.5,29.87,NNE,23,0.0,1.0,95,0.02,,---,0.06,VWS V14.01,2013-11-10 13:03:00,
2013-11-10 08:04:00,35.8,34.5,29.87,North,11,1.0,1.0,95,0.02,,---,0.06,VWS V14.01,2013-11-10 13:04:00,
2013-11-10 08:06:00,35.8,34.5,29.87,NW,322,1.0,2.0,95,0.02,,---,0.06,VWS V14.01,2013-11-10 13:06:00,
2013-11-10 08:08:00,35.7,34.4,29.87,NW,325,2.0,2.0,95,0.02,,---,0.06,VWS V14.01,2013-11-10 13:08:00,
2013-11-10 08:10:00,35.6,34.3,29.87,NW,325,1.0,2.0,95,0.02,,---,0.06,VWS V14.01,2013-11-10 13:10:00,
2013-11-10 08:11:00,35.6,34.3,29.87,NNW,330,1.0,2.0,95,0.02,,---,0.06,VWS V14.01,2013-11-10 13:11:00,
2013-11-10 08:12:00,35.6,34.3,29.87,NNW,330,0.0,2.0,95,0.02,,---,0.06,VWS V14.01,2013-11-10 13:12:00,
2013-11-10 08:13:00,35.6,34.3,29.87,NNW,330,0.0,2.0,95,0.02,,---,0.06,VWS V14.01,2013-11-10 13:13:00,
2013-11-10 08:15:00,35.6,34.3,29.87,NNW,330,0.0,2.0,95,0.02,,---,0.06,VWS V14.01,2013-11-10 13:15:00,
2013-11-10 08:16:00,35.6,34.3,29.87,NNW,330,0.0,2.0,95,0.02,,---,0.06,VWS V14.01,2013-11-10 13:16:00,
2013-11-10 08:17:00,35.6,34.3,29.87,NNW,333,0.0,2.0,95,0.02,,---,0.06,VWS V14.01,2013-11-10 13:17:00,
2013-11-10 08:18:00,35.6,34.3,29.86,NNW,333,0.0,2.0,95,0.02,,---,0.06,VWS V14.01,2013-11-10 13:18:00,
2013-11-10 08:21:00,35.8,34.5,29.86,NNW,337,1.0,2.0,95,0.03,,---,0.07,VWS V14.01,2013-11-10 13:21:00,
2013-11-10 08:22:00,35.9,34.6,29.86,North,350,3.0,3.0,95,0.03,,---,0.07,VWS V14.01,2013-11-10 13:22:00,
2013-11-10 08:23:00,35.9,34.6,29.86,NNW,342,3.0,3.0,95,0.03,,---,0.07,VWS V14.01,2013-11-10 13:23:00,
2013-11-10 08:24:00,35.9,34.6,29.86,NNW,338,2.0,3.0,95,0.03,,---,0.07,VWS V14.01,2013-11-10 13:24:00,
2013-11-10 08:26:00,35.9,34.6,29.86,NNE,14,2.0,3.0,95,0.03,,---,0.07,VWS V14.01,2013-11-10 13:26:00,
2013-11-10 08:27:00,35.8,34.5,29.86,NNW,328,1.0,3.0,95,0.03,,---,0.07,VWS V14.01,2013-11-10 13:27:00,
2013-11-10 08:29:00,35.8,34.5,29.86,North,353,1.0,3.0,95,0.04,,---,0.08,VWS V14.01,2013-11-10 13:29:00,
2013-11-10 08:30:00,35.8,34.5,29.86,NNW,341,1.0,3.0,95,0.04,,---,0.08,VWS V14.01,2013-11-10 13:30:00,
2013-11-10 08:33:00,35.9,34.3,29.86,NNW,332,1.0,2.0,94,0.03,,---,0.08,VWS V14.01,2013-11-10 13:33:00,
2013-11-10 08:35:00,35.9,34.3,29.86,NNW,346,2.0,3.0,94,0.03,,---,0.08,VWS V14.01,2013-11-10 13:35:00,
2013-11-10 08:36:00,35.9,34.6,29.86,North,349,1.0,3.0,95,0.03,,---,0.08,VWS V14.01,2013-11-10 13:36:00,
2013-11-10 08:38:00,36.0,34.4,29.86,NNW,343,2.0,3.0,94,0.03,,---,0.08,VWS V14.01,2013-11-10 13:38:00,
2013-11-10 08:41:00,36.0,34.4,29.86,North,360,3.0,4.0,94,0.03,,---,0.08,VWS V14.01,2013-11-10 13:41:00,
2013-11-10 08:42:00,36.0,34.4,29.86,North,353,1.0,4.0,94,0.03,,---,0.08,VWS V14.01,2013-11-10 13:42:00,
2013-11-10 08:43:00,36.0,34.4,29.86,NW,313,1.0,4.0,94,0.04,,---,0.09,VWS V14.01,2013-11-10 13:43:00,
2013-11-10 08:44:00,35.9,34.3,29.86,NW,313,2.0,4.0,94,0.04,,---,0.09,VWS V14.01,2013-11-10 13:44:00,
2013-11-10 08:45:00,36.0,34.4,29.86,North,3,2.0,4.0,94,0.04,,---,0.09,VWS V14.01,2013-11-10 13:45:00,
2013-11-10 08:47:00,36.0,34.4,29.85,North,349,0.0,4.0,94,0.04,,---,0.09,VWS V14.01,2013-11-10 13:47:00,
2013-11-10 08:48:00,36.0,34.4,29.86,North,349,1.0,4.0,94,0.04,,---,0.09,VWS V14.01,2013-11-10 13:48:00,
2013-11-10 08:52:00,36.0,34.4,29.86,NNW,337,1.0,4.0,94,0.04,,---,0.09,VWS V14.01,2013-11-10 13:52:00,
2013-11-10 08:53:00,36.1,34.5,29.86,North,352,1.0,4.0,94,0.04,,---,0.09,VWS V14.01,2013-11-10 13:53:00,
2013-11-10 08:54:00,36.1,34.5,29.86,North,5,2.0,4.0,94,0.04,,---,0.09,VWS V14.01,2013-11-10 13:54:00,
2013-11-10 08:55:00,36.1,34.5,29.85,North,357,1.0,4.0,94,0.04,,---,0.09,VWS V14.01,2013-11-10 13:55:00,
2013-11-10 08:57:00,36.1,34.5,29.85,North,349,0.0,4.0,94,0.04,,---,0.09,VWS V14.01,2013-11-10 13:57:00,
2013-11-10 08:58:00,36.1,34.5,29.85,NW,326,1.0,4.0,94,0.04,,---,0.09,VWS V14.01,2013-11-10 13:58:00,
2013-11-10 08:59:00,36.1,34.5,29.86,NW,326,1.0,4.0,94,0.04,,---,0.09,VWS V14.01,2013-11-10 13:59:00,
2013-11-10 09:00:00,36.1,34.5,29.85,NW,326,1.0,4.0,94,0.04,,---,0.09,VWS V14.01,2013-11-10 14:00:00,
2013-11-10 09:01:00,36.1,34.5,29.85,NNW,328,0.0,2.0,94,0.04,,---,0.09,VWS V14.01,2013-11-10 14:01:00,
2013-11-10 09:03:00,36.2,34.6,29.85,NNW,328,0.0,2.0,94,0.04,,---,0.09,VWS V14.01,2013-11-10 14:03:00,
2013-11-10 09:04:00,36.2,34.6,29.85,NNW,328,1.0,2.0,94,0.04,,---,0.09,VWS V14.01,2013-11-10 14:04:00,
2013-11-10 09:05:00,36.2,34.6,29.85,NNW,328,0.0,2.0,94,0.04,,---,0.09,VWS V14.01,2013-11-10 14:05:00,
2013-11-10 09:07:00,36.3,34.7,29.85,NNW,328,0.0,2.0,94,0.04,,---,0.09,VWS V14.01,2013-11-10 14:07:00,
2013-11-10 09:08:00,36.3,34.7,29.85,NNW,329,1.0,2.0,94,0.04,,---,0.09,VWS V14.01,2013-11-10 14:08:00,
2013-11-10 09:10:00,36.3,34.7,29.85,NNW,330,0.0,2.0,94,0.04,,---,0.09,VWS V14.01,2013-11-10 14:10:00,
2013-11-10 09:11:00,36.4,34.8,29.85,NNW,332,0.0,2.0,94,0.04,,---,0.09,VWS V14.01,2013-11-10 14:11:00,
2013-11-10 09:12:00,36.4,34.8,29.85,North,352,2.0,2.0,94,0.04,,---,0.09,VWS V14.01,2013-11-10 14:12:00,
2013-11-10 09:13:00,36.4,34.8,29.85,North,350,1.0,2.0,94,0.04,,---,0.09,VWS V14.01,2013-11-10 14:13:00,
2013-11-10 09:16:00,36.5,34.9,29.85,North,354,2.0,2.0,94,0.04,,---,0.09,VWS V14.01,2013-11-10 14:16:00,
2013-11-10 09:18:00,36.5,34.9,29.84,North,353,2.0,2.0,94,0.04,,---,0.09,VWS V14.01,2013-11-10 14:18:00,
2013-11-10 09:19:00,36.5,34.9,29.84,NNW,330,1.0,2.0,94,0.04,,---,0.09,VWS V14.01,2013-11-10 14:19:00,
2013-11-10 09:20:00,36.5,34.9,29.84,NNW,345,1.0,2.0,94,0.04,,---,0.09,VWS V14.01,2013-11-10 14:20:00,
2013-11-10 09:21:00,36.5,34.9,29.84,NW,319,1.0,2.0,94,0.04,,---,0.09,VWS V14.01,2013-11-10 14:21:00,
2013-11-10 09:22:00,36.5,34.9,29.84,NNW,328,1.0,2.0,94,0.04,,---,0.09,VWS V14.01,2013-11-10 14:22:00,
2013-11-10 09:23:00,36.6,35.0,29.84,NNW,338,2.0,2.0,94,0.04,,---,0.09,VWS V14.01,2013-11-10 14:23:00,
2013-11-10 09:24:00,36.6,35.0,29.84,NNW,337,1.0,2.0,94,0.04,,---,0.09,VWS V14.01,2013-11-10 14:24:00,
2013-11-10 09:26:00,36.6,35.0,29.84,NNW,336,1.0,2.0,94,0.04,,---,0.09,VWS V14.01,2013-11-10 14:26:00,
2013-11-10 09:27:00,36.6,35.0,29.84,NNW,336,0.0,2.0,94,0.04,,---,0.09,VWS V14.01,2013-11-10 14:27:00,
2013-11-10 09:28:00,36.7,35.1,29.84,NNW,336,1.0,2.0,94,0.04,,---,0.09,VWS V14.01,2013-11-10 14:28:00,
2013-11-10 09:31:00,36.8,35.2,29.84,NNW,336,1.0,1.0,94,0.01,,---,0.09,VWS V14.01,2013-11-10 14:31:00,
2013-11-10 09:32:00,36.8,35.2,29.84,NW,326,1.0,1.0,94,0.01,,---,0.09,VWS V14.01,2013-11-10 14:32:00,
2013-11-10 09:33:00,36.9,35.3,29.84,North,360,2.0,2.0,94,0.01,,---,0.09,VWS V14.01,2013-11-10 14:33:00,
2013-11-10 09:36:00,36.9,35.3,29.83,North,349,3.0,3.0,94,0.01,,---,0.09,VWS V14.01,2013-11-10 14:36:00,
2013-11-10 09:37:00,37.0,35.4,29.83,North,352,3.0,3.0,94,0.01,,---,0.09,VWS V14.01,2013-11-10 14:37:00,
2013-11-10 09:39:00,37.0,35.4,29.83,NNW,335,2.0,3.0,94,0.01,,---,0.09,VWS V14.01,2013-11-10 14:39:00,
2013-11-10 09:42:00,37.0,35.2,29.83,NW,322,0.0,3.0,93,0.01,,---,0.09,VWS V14.01,2013-11-10 14:42:00,
2013-11-10 09:43:00,37.0,35.2,29.83,NW,321,0.0,3.0,93,0.01,,---,0.09,VWS V14.01,2013-11-10 14:43:00,
2013-11-10 09:44:00,37.0,35.2,29.83,NW,321,0.0,3.0,93,0.01,,---,0.09,VWS V14.01,2013-11-10 14:44:00,
2013-11-10 09:45:00,37.0,35.2,29.83,NW,322,0.0,3.0,93,0.01,,---,0.09,VWS V14.01,2013-11-10 14:45:00,
2013-11-10 09:48:00,37.2,35.6,29.83,North,349,2.0,3.0,94,0.01,,---,0.09,VWS V14.01,2013-11-10 14:48:00,
2013-11-10 09:49:00,37.2,35.4,29.83,NNW,332,2.0,3.0,93,0.01,,---,0.09,VWS V14.01,2013-11-10 14:49:00,
2013-11-10 09:50:00,37.2,35.4,29.83,North,356,2.0,3.0,93,0.01,,---,0.09,VWS V14.01,2013-11-10 14:50:00,
2013-11-10 09:51:00,37.2,35.4,29.83,NNW,347,1.0,3.0,93,0.01,,---,0.09,VWS V14.01,2013-11-10 14:51:00,
2013-11-10 09:55:00,37.5,35.7,29.83,NW,314,3.0,3.0,93,0.01,,---,0.09,VWS V14.01,2013-11-10 14:55:00,
2013-11-10 09:57:00,37.6,35.8,29.83,WNW,295,0.0,3.0,93,0.01,,---,0.09,VWS V14.01,2013-11-10 14:57:00,
2013-11-10 09:58:00,37.6,35.8,29.83,North,352,1.0,3.0,93,0.01,,---,0.09,VWS V14.01,2013-11-10 14:58:00,
2013-11-10 10:00:00,37.8,36.0,29.83,North,356,1.0,3.0,93,0.01,,---,0.09,VWS V14.01,2013-11-10 15:00:00,
2013-11-10 10:01:00,37.9,36.1,29.83,NNW,332,1.0,2.0,93,0.00,,---,0.09,VWS V14.01,2013-11-10 15:01:00,
2013-11-10 10:02:00,37.9,36.1,29.83,NW,314,2.0,3.0,93,0.00,,---,0.09,VWS V14.01,2013-11-10 15:02:00,
2013-11-10 10:05:00,37.9,36.1,29.83,NNW,340,1.0,3.0,93,0.00,,---,0.09,VWS V14.01,2013-11-10 15:05:00,
2013-11-10 10:06:00,38.0,36.2,29.83,NNW,337,1.0,3.0,93,0.00,,---,0.09,VWS V14.01,2013-11-10 15:06:00,
2013-11-10 10:07:00,38.0,36.2,29.83,NNW,332,0.0,3.0,93,0.00,,---,0.09,VWS V14.01,2013-11-10 15:07:00,
2013-11-10 10:09:00,38.1,36.3,29.83,NNW,331,0.0,3.0,93,0.00,,---,0.09,VWS V14.01,2013-11-10 15:09:00,
2013-11-10 10:11:00,38.1,36.3,29.83,NW,320,2.0,3.0,93,0.00,,---,0.09,VWS V14.01,2013-11-10 15:11:00,
2013-11-10 10:12:00,38.1,36.3,29.83,NW,320,1.0,3.0,93,0.00,,---,0.09,VWS V14.01,2013-11-10 15:12:00,
2013-11-10 10:13:00,38.2,36.4,29.83,NNW,328,1.0,3.0,93,0.00,,---,0.09,VWS V14.01,2013-11-10 15:13:00,
2013-11-10 10:15:00,38.2,36.4,29.83,NW,321,0.0,3.0,93,0.00,,---,0.09,VWS V14.01,2013-11-10 15:15:00,
2013-11-10 10:17:00,38.3,36.5,29.83,NNW,337,1.0,3.0,93,0.00,,---,0.09,VWS V14.01,2013-11-10 15:17:00,
2013-11-10 10:19:00,38.3,36.5,29.83,West,281,1.0,3.0,93,0.00,,---,0.09,VWS V14.01,2013-11-10 15:19:00,
2013-11-10 10:22:00,38.3,36.2,29.83,NW,320,1.0,3.0,92,0.00,,---,0.09,VWS V14.01,2013-11-10 15:22:00,
2013-11-10 10:23:00,38.2,36.1,29.83,NW,314,2.0,3.0,92,0.00,,---,0.09,VWS V14.01,2013-11-10 15:23:00,
2013-11-10 10:25:00,38.2,36.1,29.83,WNW,284,0.0,3.0,92,0.00,,---,0.09,VWS V14.01,2013-11-10 15:25:00,
2013-11-10 10:27:00,38.2,36.4,29.83,WNW,298,0.0,3.0,93,0.00,,---,0.09,VWS V14.01,2013-11-10 15:27:00,
2013-11-10 10:28:00,38.2,36.4,29.82,North,349,0.0,3.0,93,0.00,,---,0.09,VWS V14.01,2013-11-10 15:28:00,
2013-11-10 10:29:00,38.3,36.5,29.82,North,354,1.0,3.0,93,0.00,,---,0.09,VWS V14.01,2013-11-10 15:29:00,
2013-11-10 10:30:00,38.3,36.5,29.82,NW,323,0.0,3.0,93,0.00,,---,0.09,VWS V14.01,2013-11-10 15:30:00,
2013-11-10 10:32:00,38.4,36.6,29.81,NNW,328,1.0,1.0,93,0.00,,---,0.09,VWS V14.01,2013-11-10 15:32:00,
2013-11-10 10:33:00,38.4,36.6,29.81,NNW,336,0.0,1.0,93,0.00,,---,0.09,VWS V14.01,2013-11-10 15:33:00,
2013-11-10 10:34:00,38.5,36.7,29.81,NNW,337,0.0,1.0,93,0.00,,---,0.09,VWS V14.01,2013-11-10 15:34:00,
2013-11-10 10:35:00,38.5,36.9,29.81,NNW,337,0.0,1.0,94,0.00,,---,0.09,VWS V14.01,2013-11-10 15:35:00,
2013-11-10 10:38:00,38.7,37.1,29.80,ENE,62,3.0,3.0,94,0.00,,---,0.09,VWS V14.01,2013-11-10 15:38:00,
2013-11-10 10:39:00,38.7,37.1,29.80,ENE,63,3.0,3.0,94,0.01,,---,0.10,VWS V14.01,2013-11-10 15:39:00,
2013-11-10 10:40:00,38.6,36.8,29.80,ENE,72,4.0,5.0,93,0.01,,---,0.10,VWS V14.01,2013-11-10 15:40:00,
2013-11-10 10:42:00,38.5,36.7,29.80,ENE,57,0.0,5.0,93,0.01,,---,0.10,VWS V14.01,2013-11-10 15:42:00,
2013-11-10 10:43:00,38.5,36.7,29.80,ENE,57,0.0,5.0,93,0.01,,---,0.10,VWS V14.01,2013-11-10 15:43:00,
2013-11-10 10:44:00,38.5,36.7,29.80,ENE,57,0.0,5.0,93,0.01,,---,0.10,VWS V14.01,2013-11-10 15:44:00,
2013-11-10 10:45:00,38.5,36.9,29.80,NE,41,1.0,5.0,94,0.01,,---,0.10,VWS V14.01,2013-11-10 15:45:00,
2013-11-10 10:48:00,38.5,36.7,29.80,NNW,336,0.0,5.0,93,0.01,,---,0.10,VWS V14.01,2013-11-10 15:48:00,
2013-11-10 10:50:00,38.5,36.7,29.80,NNW,336,0.0,5.0,93,0.01,,---,0.10,VWS V14.01,2013-11-10 15:50:00,
2013-11-10 10:53:00,38.6,37.0,29.79,North,6,2.0,5.0,94,0.01,,---,0.10,VWS V14.01,2013-11-10 15:53:00,
2013-11-10 10:55:00,38.6,37.0,29.79,NE,40,1.0,5.0,94,0.01,,---,0.10,VWS V14.01,2013-11-10 15:55:00,
2013-11-10 10:56:00,38.6,37.0,29.79,NE,39,1.0,5.0,94,0.01,,---,0.10,VWS V14.01,2013-11-10 15:56:00,
2013-11-10 10:57:00,38.6,37.0,29.79,NE,40,0.0,5.0,94,0.01,,---,0.10,VWS V14.01,2013-11-10 15:57:00,
2013-11-10 10:59:00,38.7,37.1,29.79,East,79,1.0,5.0,94,0.01,,---,0.10,VWS V14.01,2013-11-10 15:59:00,
2013-11-10 11:00:00,38.7,37.1,29.79,North,1,2.0,5.0,94,0.01,,---,0.10,VWS V14.01,2013-11-10 16:00:00,
2013-11-10 11:01:00,38.7,37.1,29.79,NNW,338,2.0,2.0,94,0.01,,---,0.10,VWS V14.01,2013-11-10 16:01:00,
2013-11-10 11:02:00,38.7,37.1,29.79,NW,316,3.0,5.0,94,0.01,,---,0.10,VWS V14.01,2013-11-10 16:02:00,
2013-11-10 11:03:00,38.6,36.8,29.79,WNW,298,4.0,5.0,93,0.01,,---,0.10,VWS V14.01,2013-11-10 16:03:00,
2013-11-10 11:05:00,38.6,36.8,29.80,WNW,295,2.0,5.0,93,0.01,,---,0.10,VWS V14.01,2013-11-10 16:05:00,
2013-11-10 11:07:00,38.6,37.0,29.80,NNW,332,0.0,5.0,94,0.01,,---,0.10,VWS V14.01,2013-11-10 16:07:00,
2013-11-10 11:08:00,38.6,37.0,29.80,NW,311,2.0,5.0,94,0.01,,---,0.10,VWS V14.01,2013-11-10 16:08:00,
2013-11-10 11:10:00,38.5,36.7,29.79,NW,320,4.0,5.0,93,0.01,,---,0.10,VWS V14.01,2013-11-10 16:10:00,
2013-11-10 11:11:00,38.5,36.7,29.79,NW,307,0.0,5.0,93,0.01,,---,0.10,VWS V14.01,2013-11-10 16:11:00,
2013-11-10 11:13:00,38.4,36.6,29.79,West,274,0.0,5.0,93,0.01,,---,0.10,VWS V14.01,2013-11-10 16:13:00,
2013-11-10 11:16:00,38.4,36.6,29.79,West,276,1.0,5.0,93,0.01,,---,0.10,VWS V14.01,2013-11-10 16:16:00,
2013-11-10 11:18:00,38.4,36.6,29.78,WNW,293,4.0,5.0,93,0.01,,---,0.10,VWS V14.01,2013-11-10 16:18:00,
2013-11-10 11:19:00,38.4,36.6,29.78,WNW,291,3.0,5.0,93,0.01,,---,0.10,VWS V14.01,2013-11-10 16:19:00,
2013-11-10 11:21:00,38.4,36.6,29.78,NW,316,2.0,5.0,93,0.01,,---,0.10,VWS V14.01,2013-11-10 16:21:00,
2013-11-10 11:22:00,38.4,36.6,29.78,NW,324,4.0,5.0,93,0.01,,---,0.10,VWS V14.01,2013-11-10 16:22:00,
2013-11-10 11:25:00,38.5,36.7,29.78,WNW,287,0.0,5.0,93,0.01,,---,0.10,VWS V14.01,2013-11-10 16:25:00,
2013-11-10 11:27:00,38.5,36.7,29.78,NNW,331,3.0,5.0,93,0.01,,---,0.10,VWS V14.01,2013-11-10 16:27:00,
2013-11-10 11:29:00,38.6,36.8,29.78,NW,314,2.0,5.0,93,0.01,,---,0.10,VWS V14.01,2013-11-10 16:29:00,
2013-11-10 11:30:00,38.6,36.8,29.78,WNW,293,3.0,5.0,93,0.01,,---,0.10,VWS V14.01,2013-11-10 16:30:00,
2013-11-10 11:31:00,38.7,36.8,29.78,NW,316,3.0,4.0,93,0.01,,---,0.10,VWS V14.01,2013-11-10 16:31:00,
2013-11-10 11:32:00,38.7,36.8,29.77,West,267,2.0,4.0,93,0.01,,---,0.10,VWS V14.01,2013-11-10 16:32:00,
2013-11-10 11:35:00,38.8,37.0,29.78,NW,321,2.0,4.0,93,0.01,,---,0.10,VWS V14.01,2013-11-10 16:35:00,
2013-11-10 11:36:00,38.8,37.0,29.78,NW,326,2.0,4.0,93,0.01,,---,0.10,VWS V14.01,2013-11-10 16:36:00,
2013-11-10 11:37:00,38.9,37.0,29.78,NW,309,3.0,4.0,93,0.01,,---,0.10,VWS V14.01,2013-11-10 16:37:00,
2013-11-10 11:38:00,38.9,37.0,29.77,NW,320,3.0,4.0,93,0.01,,---,0.10,VWS V14.01,2013-11-10 16:38:00,
2013-11-10 11:39:00,39.0,37.2,29.77,NNW,339,4.0,5.0,93,0.01,,---,0.10,VWS V14.01,2013-11-10 16:39:00,
2013-11-10 11:41:00,39.1,37.0,29.77,NW,313,2.0,5.0,92,0.01,,---,0.10,VWS V14.01,2013-11-10 16:41:00,
2013-11-10 11:42:00,39.1,37.0,29.77,NW,311,4.0,5.0,92,0.01,,---,0.10,VWS V14.01,2013-11-10 16:42:00,
2013-11-10 11:44:00,39.1,37.0,29.77,West,274,2.0,5.0,92,0.01,,---,0.10,VWS V14.01,2013-11-10 16:44:00,
2013-11-10 11:45:00,39.1,37.0,29.77,NW,326,3.0,5.0,92,0.01,,---,0.10,VWS V14.01,2013-11-10 16:45:00,
2013-11-10 11:46:00,39.1,37.0,29.77,NW,319,2.0,5.0,92,0.01,,---,0.10,VWS V14.01,2013-11-10 16:46:00,
2013-11-10 11:49:00,39.1,37.0,29.77,NW,323,5.0,6.0,92,0.01,,---,0.10,VWS V14.01,2013-11-10 16:49:00,
2013-11-10 11:50:00,39.1,37.0,29.77,NW,304,2.0,6.0,92,0.01,,---,0.10,VWS V14.01,2013-11-10 16:50:00,
2013-11-10 11:51:00,39.1,37.0,29.77,NW,314,3.0,6.0,92,0.01,,---,0.10,VWS V14.01,2013-11-10 16:51:00,
2013-11-10 11:52:00,39.1,37.0,29.77,NW,308,4.0,6.0,92,0.01,,---,0.10,VWS V14.01,2013-11-10 16:52:00,
2013-11-10 11:54:00,39.1,36.7,29.77,NW,320,3.0,6.0,91,0.01,,---,0.10,VWS V14.01,2013-11-10 16:54:00,
2013-11-10 11:55:00,39.1,36.7,29.77,WNW,298,1.0,6.0,91,0.01,,---,0.10,VWS V14.01,2013-11-10 16:55:00,
2013-11-10 11:56:00,39.1,36.7,29.77,WNW,297,0.0,6.0,91,0.01,,---,0.10,VWS V14.01,2013-11-10 16:56:00,
2013-11-10 11:57:00,39.1,36.7,29.77,WSW,252,1.0,6.0,91,0.01,,---,0.10,VWS V14.01,2013-11-10 16:57:00,
2013-11-10 12:01:00,39.3,37.2,29.77,NW,326,0.0,0.0,92,0.00,,---,0.10,VWS V14.01,2013-11-10 17:01:00,
2013-11-10 12:02:00,39.3,37.2,29.76,NNW,340,2.0,2.0,92,0.00,,---,0.10,VWS V14.01,2013-11-10 17:02:00,
2013-11-10 12:04:00,39.4,37.3,29.76,NNE,27,0.0,2.0,92,0.00,,---,0.10,VWS V14.01,2013-11-10 17:04:00,
2013-11-10 12:07:00,39.5,37.1,29.77,WNW,298,0.0,2.0,91,0.00,,---,0.10,VWS V14.01,2013-11-10 17:07:00,
2013-11-10 12:08:00,39.5,37.1,29.77,WNW,298,0.0,2.0,91,0.00,,---,0.10,VWS V14.01,2013-11-10 17:08:00,
2013-11-10 12:09:00,39.5,37.1,29.77,WNW,298,0.0,2.0,91,0.00,,---,0.10,VWS V14.01,2013-11-10 17:09:00,
2013-11-10 12:10:00,39.6,37.5,29.77,WNW,298,0.0,2.0,92,0.00,,---,0.10,VWS V14.01,2013-11-10 17:10:00,
2013-11-10 12:11:00,39.7,37.6,29.76,West,269,1.0,2.0,92,0.00,,---,0.10,VWS V14.01,2013-11-10 17:11:00,
2013-11-10 12:13:00,39.8,37.7,29.77,WNW,289,3.0,3.0,92,0.00,,---,0.10,VWS V14.01,2013-11-10 17:13:00,
2013-11-10 12:14:00,39.8,37.4,29.77,WNW,285,1.0,3.0,91,0.00,,---,0.10,VWS V14.01,2013-11-10 17:14:00,
2013-11-10 12:16:00,39.8,37.4,29.76,WNW,285,0.0,3.0,91,0.00,,---,0.10,VWS V14.01,2013-11-10 17:16:00,
2013-11-10 12:18:00,39.9,37.8,29.76,SSW,194,0.0,3.0,92,0.00,,---,0.10,VWS V14.01,2013-11-10 17:18:00,
2013-11-10 12:19:00,39.9,37.8,29.76,WSW,238,1.0,3.0,92,0.00,,---,0.10,VWS V14.01,2013-11-10 17:19:00,
2013-11-10 12:20:00,40.0,37.6,29.76,West,267,2.0,3.0,91,0.00,,---,0.10,VWS V14.01,2013-11-10 17:20:00,
2013-11-10 12:21:00,39.9,37.5,29.76,WNW,284,2.0,3.0,91,0.00,,---,0.10,VWS V14.01,2013-11-10 17:21:00,
2013-11-10 12:22:00,39.9,37.2,29.76,WSW,252,2.0,3.0,90,0.00,,---,0.10,VWS V14.01,2013-11-10 17:22:00,
2013-11-10 12:23:00,39.8,37.4,29.76,SW,229,3.0,3.0,91,0.00,,---,0.10,VWS V14.01,2013-11-10 17:23:00,
2013-11-10 12:25:00,39.8,37.4,29.76,NNW,336,1.0,3.0,91,0.00,,---,0.10,VWS V14.01,2013-11-10 17:25:00,
2013-11-10 12:26:00,39.9,37.5,29.76,NNW,332,1.0,3.0,91,0.00,,---,0.10,VWS V14.01,2013-11-10 17:26:00,
2013-11-10 12:28:00,39.9,37.5,29.76,West,274,1.0,3.0,91,0.00,,---,0.10,VWS V14.01,2013-11-10 17:28:00,
2013-11-10 12:30:00,40.0,37.6,29.75,WNW,285,0.0,3.0,91,0.00,,---,0.10,VWS V14.01,2013-11-10 17:30:00,
2013-11-10 12:31:00,40.0,37.6,29.75,NW,318,2.0,3.0,91,0.00,,---,0.10,VWS V14.01,2013-11-10 17:31:00,
2013-11-10 12:33:00,40.0,37.3,29.75,NW,315,2.0,3.0,90,0.00,,---,0.10,VWS V14.01,2013-11-10 17:33:00,
2013-11-10 12:35:00,40.1,37.4,29.75,SW,214,0.0,4.0,90,0.00,,---,0.10,VWS V14.01,2013-11-10 17:35:00,
2013-11-10 12:36:00,40.0,37.3,29.76,SW,217,0.0,4.0,90,0.00,,---,0.10,VWS V14.01,2013-11-10 17:36:00,
2013-11-10 12:37:00,40.1,37.4,29.76,West,274,0.0,4.0,90,0.00,,---,0.10,VWS V14.01,2013-11-10 17:37:00,
2013-11-10 12:38:00,40.1,37.7,29.76,NW,314,0.0,4.0,91,0.00,,---,0.10,VWS V14.01,2013-11-10 17:38:00,
2013-11-10 12:39:00,40.2,37.8,29.76,WSW,257,1.0,4.0,91,0.00,,---,0.10,VWS V14.01,2013-11-10 17:39:00,
2013-11-10 12:40:00,40.3,37.9,29.76,West,262,0.0,4.0,91,0.00,,---,0.10,VWS V14.01,2013-11-10 17:40:00,
2013-11-10 12:41:00,40.3,37.9,29.76,West,261,0.0,4.0,91,0.00,,---,0.10,VWS V14.01,2013-11-10 17:41:00,
2013-11-10 12:43:00,40.4,37.7,29.75,NW,311,2.0,4.0,90,0.00,,---,0.10,VWS V14.01,2013-11-10 17:43:00,
2013-11-10 12:45:00,40.4,37.7,29.75,NW,318,0.0,4.0,90,0.00,,---,0.10,VWS V14.01,2013-11-10 17:45:00,
2013-11-10 12:46:00,40.5,37.8,29.75,NW,319,1.0,4.0,90,0.00,,---,0.10,VWS V14.01,2013-11-10 17:46:00,
2013-11-10 12:47:00,40.5,37.8,29.75,NW,319,0.0,4.0,90,0.00,,---,0.10,VWS V14.01,2013-11-10 17:47:00,
2013-11-10 12:48:00,40.6,37.9,29.75,NW,309,0.0,4.0,90,0.00,,---,0.10,VWS V14.01,2013-11-10 17:48:00,
2013-11-10 12:49:00,40.6,37.9,29.75,NW,309,0.0,4.0,90,0.00,,---,0.10,VWS V14.01,2013-11-10 17:49:00,
2013-11-10 12:52:00,40.7,38.0,29.75,NW,322,0.0,4.0,90,0.00,,---,0.10,VWS V14.01,2013-11-10 17:52:00,
2013-11-10 12:53:00,40.9,38.2,29.75,NW,322,0.0,4.0,90,0.00,,---,0.10,VWS V14.01,2013-11-10 17:53:00,
2013-11-10 12:54:00,40.9,38.2,29.75,NW,322,0.0,4.0,90,0.00,,---,0.10,VWS V14.01,2013-11-10 17:54:00,
2013-11-10 12:57:00,41.2,38.5,29.75,NW,322,0.0,4.0,90,0.00,,---,0.10,VWS V14.01,2013-11-10 17:57:00,
2013-11-10 12:58:00,41.3,38.6,29.75,NW,322,0.0,4.0,90,0.00,,---,0.10,VWS V14.01,2013-11-10 17:58:00,
2013-11-10 12:59:00,41.4,38.7,29.75,NW,322,0.0,4.0,90,0.00,,---,0.10,VWS V14.01,2013-11-10 17:59:00,
2013-11-10 13:00:00,41.5,38.5,29.75,South,187,0.0,4.0,89,0.00,,---,0.10,VWS V14.01,2013-11-10 18:00:00,
2013-11-10 13:02:00,41.4,38.1,29.74,East,91,1.0,3.0,88,0.00,,---,0.10,VWS V14.01,2013-11-10 18:02:00,
2013-11-10 13:03:00,41.3,38.0,29.75,East,89,1.0,3.0,88,0.00,,---,0.10,VWS V14.01,2013-11-10 18:03:00,
2013-11-10 13:04:00,41.1,37.8,29.75,East,89,0.0,3.0,88,0.00,,---,0.10,VWS V14.01,2013-11-10 18:04:00,
2013-11-10 13:05:00,41.0,38.0,29.74,ENE,72,0.0,3.0,89,0.00,,---,0.10,VWS V14.01,2013-11-10 18:05:00,
2013-11-10 13:06:00,41.1,38.1,29.74,ENE,72,0.0,3.0,89,0.00,,---,0.10,VWS V14.01,2013-11-10 18:06:00,
2013-11-10 13:08:00,41.1,38.1,29.74,ENE,67,0.0,3.0,89,0.00,,---,0.10,VWS V14.01,2013-11-10 18:08:00,
2013-11-10 13:09:00,41.1,38.1,29.74,ENE,67,0.0,3.0,89,0.00,,---,0.10,VWS V14.01,2013-11-10 18:09:00,
2013-11-10 13:10:00,41.2,38.2,29.74,ENE,67,0.0,3.0,89,0.00,,---,0.10,VWS V14.01,2013-11-10 18:10:00,
2013-11-10 13:12:00,41.3,38.3,29.74,WSW,238,5.0,5.0,89,0.00,,---,0.10,VWS V14.01,2013-11-10 18:12:00,
2013-11-10 13:13:00,41.3,38.3,29.74,SSW,197,2.0,5.0,89,0.00,,---,0.10,VWS V14.01,2013-11-10 18:13:00,
2013-11-10 13:14:00,41.3,38.3,29.74,WSW,255,1.0,5.0,89,0.00,,---,0.10,VWS V14.01,2013-11-10 18:14:00,
2013-11-10 13:15:00,41.3,38.3,29.75,SSW,204,2.0,5.0,89,0.00,,---,0.10,VWS V14.01,2013-11-10 18:15:00,
2013-11-10 13:17:00,41.2,37.9,29.75,SSW,207,2.0,6.0,88,0.00,,---,0.10,VWS V14.01,2013-11-10 18:17:00,
2013-11-10 13:18:00,41.2,38.2,29.75,SW,227,2.0,6.0,89,0.00,,---,0.10,VWS V14.01,2013-11-10 18:18:00,
2013-11-10 13:19:00,41.1,38.1,29.74,SE,140,1.0,6.0,89,0.00,,---,0.10,VWS V14.01,2013-11-10 18:19:00,
2013-11-10 13:20:00,41.1,38.1,29.74,WSW,247,1.0,6.0,89,0.00,,---,0.10,VWS V14.01,2013-11-10 18:20:00,
2013-11-10 13:24:00,41.0,38.3,29.74,SSW,212,1.0,6.0,90,0.00,,---,0.10,VWS V14.01,2013-11-10 18:24:00,
2013-11-10 13:26:00,41.1,38.4,29.74,SE,131,1.0,6.0,90,0.00,,---,0.10,VWS V14.01,2013-11-10 18:26:00,
2013-11-10 13:27:00,41.1,38.4,29.74,SW,217,1.0,6.0,90,0.00,,---,0.10,VWS V14.01,2013-11-10 18:27:00,
2013-11-10 13:28:00,41.2,38.5,29.74,SSW,207,2.0,6.0,90,0.00,,---,0.10,VWS V14.01,2013-11-10 18:28:00,
2013-11-10 13:29:00,41.2,38.5,29.74,SSW,207,2.0,6.0,90,0.00,,---,0.10,VWS V14.01,2013-11-10 18:29:00,
2013-11-10 13:30:00,41.3,38.6,29.74,SW,226,3.0,6.0,90,0.00,,---,0.10,VWS V14.01,2013-11-10 18:30:00,
2013-11-10 13:31:00,41.2,38.2,29.74,SW,236,3.0,3.0,89,0.00,,---,0.10,VWS V14.01,2013-11-10 18:31:00,
2013-11-10 13:32:00,41.1,38.1,29.74,SW,226,1.0,3.0,89,0.00,,---,0.10,VWS V14.01,2013-11-10 18:32:00,
2013-11-10 13:33:00,41.1,38.1,29.74,SW,226,0.0,3.0,89,0.00,,---,0.10,VWS V14.01,2013-11-10 18:33:00,
2013-11-10 13:35:00,41.0,38.0,29.74,SW,227,0.0,3.0,89,0.00,,---,0.10,VWS V14.01,2013-11-10 18:35:00,
2013-11-10 13:36:00,41.1,38.1,29.74,West,277,1.0,3.0,89,0.00,,---,0.10,VWS V14.01,2013-11-10 18:36:00,
2013-11-10 13:37:00,41.1,38.4,29.74,WSW,252,0.0,3.0,90,0.00,,---,0.10,VWS V14.01,2013-11-10 18:37:00,
2013-11-10 13:38:00,41.0,38.0,29.74,WSW,252,0.0,3.0,89,0.00,,---,0.10,VWS V14.01,2013-11-10 18:38:00,
2013-11-10 13:41:00,41.0,38.0,29.74,West,270,1.0,3.0,89,0.00,,---,0.10,VWS V14.01,2013-11-10 18:41:00,
2013-11-10 13:42:00,41.0,38.0,29.75,West,270,1.0,3.0,89,0.00,,---,0.10,VWS V14.01,2013-11-10 18:42:00,
2013-11-10 13:43:00,41.0,38.0,29.74,West,270,1.0,3.0,89,0.00,,---,0.10,VWS V14.01,2013-11-10 18:43:00,
2013-11-10 13:46:00,41.0,38.3,29.74,West,260,1.0,3.0,90,0.00,,---,0.10,VWS V14.01,2013-11-10 18:46:00,
2013-11-10 13:47:00,41.0,38.3,29.74,WNW,284,2.0,3.0,90,0.00,,---,0.10,VWS V14.01,2013-11-10 18:47:00,
2013-11-10 13:48:00,40.9,38.2,29.74,NW,314,1.0,3.0,90,0.00,,---,0.10,VWS V14.01,2013-11-10 18:48:00,
2013-11-10 13:49:00,40.9,38.2,29.74,NW,315,1.0,3.0,90,0.00,,---,0.10,VWS V14.01,2013-11-10 18:49:00,
2013-11-10 13:52:00,40.9,38.2,29.74,WNW,288,0.0,3.0,90,0.00,,---,0.10,VWS V14.01,2013-11-10 18:52:00,
2013-11-10 13:53:00,40.9,38.2,29.74,WNW,288,0.0,3.0,90,0.00,,---,0.10,VWS V14.01,2013-11-10 18:53:00,
2013-11-10 13:54:00,40.9,38.2,29.74,WNW,285,0.0,3.0,90,0.00,,---,0.10,VWS V14.01,2013-11-10 18:54:00,
2013-11-10 13:57:00,40.9,38.2,29.74,WNW,288,0.0,3.0,90,0.00,,---,0.10,VWS V14.01,2013-11-10 18:57:00,
2013-11-10 13:58:00,40.9,38.2,29.74,WNW,288,0.0,3.0,90,0.00,,---,0.10,VWS V14.01,2013-11-10 18:58:00,
2013-11-10 13:59:00,40.9,38.2,29.74,WNW,288,1.0,3.0,90,0.00,,---,0.10,VWS V14.01,2013-11-10 18:59:00,
2013-11-10 14:00:00,40.9,38.2,29.74,WNW,288,0.0,0.0,90,0.00,,---,0.10,VWS V14.01,2013-11-10 19:00:00,
2013-11-10 14:01:00,40.9,38.2,29.74,WNW,288,0.0,0.0,90,0.00,,---,0.10,VWS V14.01,2013-11-10 19:01:00,
2013-11-10 14:03:00,41.0,38.3,29.74,WNW,290,0.0,1.0,90,0.00,,---,0.10,VWS V14.01,2013-11-10 19:03:00,
2013-11-10 14:04:00,41.0,38.3,29.74,WNW,291,1.0,1.0,90,0.00,,---,0.10,VWS V14.01,2013-11-10 19:04:00,
2013-11-10 14:05:00,41.0,38.3,29.74,WNW,290,1.0,1.0,90,0.00,,---,0.10,VWS V14.01,2013-11-10 19:05:00,
2013-11-10 14:06:00,41.0,38.3,29.74,WNW,302,1.0,2.0,90,0.00,,---,0.10,VWS V14.01,2013-11-10 19:06:00,
2013-11-10 14:07:00,40.9,38.2,29.74,NNW,336,1.0,2.0,90,0.00,,---,0.10,VWS V14.01,2013-11-10 19:07:00,
2013-11-10 14:08:00,40.9,38.2,29.74,NW,319,1.0,2.0,90,0.00,,---,0.10,VWS V14.01,2013-11-10 19:08:00,
2013-11-10 14:10:00,40.9,38.2,29.74,NW,319,1.0,2.0,90,0.00,,---,0.10,VWS V14.01,2013-11-10 19:10:00,
2013-11-10 14:11:00,40.9,38.2,29.74,NW,319,0.0,2.0,90,0.00,,---,0.10,VWS V14.01,2013-11-10 19:11:00,
2013-11-10 14:12:00,40.9,38.2,29.74,NW,319,0.0,2.0,90,0.00,,---,0.10,VWS V14.01,2013-11-10 19:12:00,
2013-11-10 14:13:00,40.9,38.2,29.74,NW,319,0.0,2.0,90,0.00,,---,0.10,VWS V14.01,2013-11-10 19:13:00,
2013-11-10 14:14:00,40.9,38.2,29.74,NW,319,0.0,2.0,90,0.00,,---,0.10,VWS V14.01,2013-11-10 19:14:00,
2013-11-10 14:16:00,41.0,38.3,29.74,NW,319,1.0,2.0,90,0.00,,---,0.10,VWS V14.01,2013-11-10 19:16:00,
2013-11-10 14:17:00,41.0,38.3,29.74,NW,319,0.0,2.0,90,0.00,,---,0.10,VWS V14.01,2013-11-10 19:17:00,
2013-11-10 14:18:00,41.0,38.3,29.73,NW,319,0.0,2.0,90,0.00,,---,0.10,VWS V14.01,2013-11-10 19:18:00,
2013-11-10 14:19:00,41.0,38.3,29.74,NW,319,0.0,2.0,90,0.00,,---,0.10,VWS V14.01,2013-11-10 19:19:00,
2013-11-10 14:21:00,41.0,38.3,29.73,WNW,288,1.0,2.0,90,0.00,,---,0.10,VWS V14.01,2013-11-10 19:21:00,
2013-11-10 14:23:00,41.0,38.3,29.73,WNW,288,0.0,2.0,90,0.00,,---,0.10,VWS V14.01,2013-11-10 19:23:00,
2013-11-10 14:25:00,40.9,38.2,29.73,WNW,288,0.0,2.0,90,0.00,,---,0.10,VWS V14.01,2013-11-10 19:25:00,
2013-11-10 14:26:00,40.9,38.2,29.73,WNW,288,0.0,2.0,90,0.00,,---,0.10,VWS V14.01,2013-11-10 19:26:00,
2013-11-10 14:27:00,41.0,38.3,29.73,WNW,288,0.0,2.0,90,0.00,,---,0.10,VWS V14.01,2013-11-10 19:27:00,
2013-11-10 14:28:00,41.0,38.3,29.73,WNW,288,0.0,2.0,90,0.00,,---,0.10,VWS V14.01,2013-11-10 19:28:00,
2013-11-10 14:31:00,41.1,38.4,29.73,WNW,288,0.0,0.0,90,0.00,,---,0.10,VWS V14.01,2013-11-10 19:31:00,
2013-11-10 14:32:00,41.1,38.4,29.73,WNW,288,0.0,0.0,90,0.00,,---,0.10,VWS V14.01,2013-11-10 19:32:00,
2013-11-10 14:33:00,41.1,38.4,29.73,WNW,288,0.0,1.0,90,0.00,,---,0.10,VWS V14.01,2013-11-10 19:33:00,
2013-11-10 14:34:00,41.1,38.4,29.73,WNW,288,0.0,1.0,90,0.00,,---,0.10,VWS V14.01,2013-11-10 19:34:00,
2013-11-10 14:36:00,41.2,38.5,29.73,WNW,296,1.0,1.0,90,0.00,,---,0.10,VWS V14.01,2013-11-10 19:36:00,
2013-11-10 14:37:00,41.2,38.5,29.73,North,350,1.0,2.0,90,0.00,,---,0.10,VWS V14.01,2013-11-10 19:37:00,
2013-11-10 14:39:00,41.2,38.5,29.73,North,351,0.0,2.0,90,0.00,,---,0.10,VWS V14.01,2013-11-10 19:39:00,
2013-11-10 14:44:00,41.2,38.5,29.73,North,349,1.0,2.0,90,0.00,,---,0.10,VWS V14.01,2013-11-10 19:44:00,
2013-11-10 14:45:00,41.2,38.5,29.73,NNW,346,2.0,2.0,90,0.00,,---,0.10,VWS V14.01,2013-11-10 19:45:00,
2013-11-10 14:46:00,41.2,38.5,29.73,NNW,328,1.0,2.0,90,0.00,,---,0.10,VWS V14.01,2013-11-10 19:46:00,
2013-11-10 14:49:00,41.2,38.5,29.73,NNW,330,1.0,2.0,90,0.00,,---,0.10,VWS V14.01,2013-11-10 19:49:00,
2013-11-10 14:50:00,41.2,38.5,29.73,NNW,332,1.0,2.0,90,0.00,,---,0.10,VWS V14.01,2013-11-10 19:50:00,
2013-11-10 14:51:00,41.1,38.4,29.73,North,353,1.0,2.0,90,0.00,,---,0.10,VWS V14.01,2013-11-10 19:51:00,
2013-11-10 14:53:00,41.1,38.4,29.73,North,1,2.0,3.0,90,0.00,,---,0.10,VWS V14.01,2013-11-10 19:53:00,
2013-11-10 14:54:00,41.1,38.4,29.73,NNW,347,3.0,3.0,90,0.00,,---,0.10,VWS V14.01,2013-11-10 19:54:00,
2013-11-10 14:56:00,41.0,38.3,29.74,North,353,2.0,3.0,90,0.00,,---,0.10,VWS V14.01,2013-11-10 19:56:00,
2013-11-10 14:57:00,41.0,38.3,29.74,NW,315,2.0,3.0,90,0.00,,---,0.10,VWS V14.01,2013-11-10 19:57:00,
2013-11-10 14:58:00,40.9,38.2,29.74,NNW,331,1.0,3.0,90,0.00,,---,0.10,VWS V14.01,2013-11-10 19:58:00,
2013-11-10 14:59:00,40.9,38.2,29.74,North,359,1.0,3.0,90,0.00,,---,0.10,VWS V14.01,2013-11-10 19:59:00,
2013-11-10 15:01:00,40.9,38.2,29.74,NNW,336,2.0,3.0,90,0.00,,---,0.10,VWS V14.01,2013-11-10 20:01:00,
2013-11-10 15:02:00,40.9,38.5,29.74,North,6,2.0,3.0,91,0.00,,---,0.10,VWS V14.01,2013-11-10 20:02:00,
2013-11-10 15:03:00,40.9,38.5,29.74,NNW,347,2.0,3.0,91,0.00,,---,0.10,VWS V14.01,2013-11-10 20:03:00,
2013-11-10 15:04:00,40.9,38.5,29.74,NW,318,2.0,3.0,91,0.00,,---,0.10,VWS V14.01,2013-11-10 20:04:00,
2013-11-10 15:07:00,40.9,38.5,29.74,NW,318,1.0,3.0,91,0.00,,---,0.10,VWS V14.01,2013-11-10 20:07:00,
2013-11-10 15:08:00,40.9,38.5,29.74,NW,314,4.0,5.0,91,0.00,,---,0.10,VWS V14.01,2013-11-10 20:08:00,
2013-11-10 15:09:00,40.9,38.5,29.74,NW,306,3.0,5.0,91,0.00,,---,0.10,VWS V14.01,2013-11-10 20:09:00,
2013-11-10 15:10:00,40.9,38.5,29.74,NW,322,1.0,5.0,91,0.00,,---,0.10,VWS V14.01,2013-11-10 20:10:00,
2013-11-10 15:13:00,40.8,38.4,29.74,NW,316,2.0,5.0,91,0.00,,---,0.10,VWS V14.01,2013-11-10 20:13:00,
2013-11-10 15:14:00,40.8,38.4,29.74,NW,326,1.0,5.0,91,0.00,,---,0.10,VWS V14.01,2013-11-10 20:14:00,
2013-11-10 15:15:00,40.8,38.4,29.74,NW,311,3.0,5.0,91,0.00,,---,0.10,VWS V14.01,2013-11-10 20:15:00,
2013-11-10 15:18:00,40.8,38.4,29.74,WNW,288,1.0,5.0,91,0.00,,---,0.10,VWS V14.01,2013-11-10 20:18:00,
2013-11-10 15:19:00,40.8,38.4,29.74,WNW,298,2.0,5.0,91,0.00,,---,0.10,VWS V14.01,2013-11-10 20:19:00,
2013-11-10 15:20:00,40.8,38.4,29.74,NW,307,1.0,5.0,91,0.00,,---,0.10,VWS V14.01,2013-11-10 20:20:00,
2013-11-10 15:21:00,40.7,38.3,29.74,West,279,1.0,5.0,91,0.00,,---,0.10,VWS V14.01,2013-11-10 20:21:00,
2013-11-10 15:24:00,40.7,38.3,29.74,WNW,298,1.0,5.0,91,0.00,,---,0.10,VWS V14.01,2013-11-10 20:24:00,
2013-11-10 15:25:00,40.7,38.3,29.74,WNW,297,1.0,5.0,91,0.00,,---,0.10,VWS V14.01,2013-11-10 20:25:00,
2013-11-10 15:26:00,40.7,38.3,29.74,WNW,302,1.0,5.0,91,0.00,,---,0.10,VWS V14.01,2013-11-10 20:26:00,
2013-11-10 15:30:00,40.7,38.3,29.74,West,273,0.0,5.0,91,0.00,,---,0.10,VWS V14.01,2013-11-10 20:30:00,
2013-11-10 15:31:00,40.7,38.3,29.74,NW,308,1.0,1.0,91,0.00,,---,0.10,VWS V14.01,2013-11-10 20:31:00,
2013-11-10 15:32:00,40.7,38.3,29.74,NW,308,0.0,1.0,91,0.00,,---,0.10,VWS V14.01,2013-11-10 20:32:00,
2013-11-10 15:35:00,40.7,38.3,29.74,West,279,1.0,3.0,91,0.00,,---,0.10,VWS V14.01,2013-11-10 20:35:00,
2013-11-10 15:37:00,40.7,38.3,29.74,WNW,291,1.0,3.0,91,0.00,,---,0.10,VWS V14.01,2013-11-10 20:37:00,
2013-11-10 15:38:00,40.7,38.3,29.74,WNW,285,1.0,3.0,91,0.00,,---,0.10,VWS V14.01,2013-11-10 20:38:00,
2013-11-10 15:40:00,40.7,38.3,29.74,West,279,2.0,3.0,91,0.00,,---,0.10,VWS V14.01,2013-11-10 20:40:00,
2013-11-10 15:42:00,40.7,38.3,29.74,WNW,302,2.0,3.0,91,0.00,,---,0.10,VWS V14.01,2013-11-10 20:42:00,
2013-11-10 15:44:00,40.6,38.2,29.74,NW,309,1.0,3.0,91,0.00,,---,0.10,VWS V14.01,2013-11-10 20:44:00,
2013-11-10 15:45:00,40.6,38.2,29.74,NW,309,2.0,3.0,91,0.00,,---,0.10,VWS V14.01,2013-11-10 20:45:00,
2013-11-10 15:48:00,40.6,38.2,29.74,WNW,303,1.0,3.0,91,0.00,,---,0.10,VWS V14.01,2013-11-10 20:48:00,
2013-11-10 15:49:00,40.6,38.2,29.74,WNW,285,2.0,3.0,91,0.00,,---,0.10,VWS V14.01,2013-11-10 20:49:00,
2013-11-10 15:50:00,40.6,38.2,29.74,NNW,328,4.0,4.0,91,0.00,,---,0.10,VWS V14.01,2013-11-10 20:50:00,
2013-11-10 15:51:00,40.6,38.2,29.74,NW,319,3.0,4.0,91,0.00,,---,0.10,VWS V14.01,2013-11-10 20:51:00,
2013-11-10 15:53:00,40.6,38.2,29.74,NW,316,2.0,4.0,91,0.00,,---,0.10,VWS V14.01,2013-11-10 20:53:00,
2013-11-10 15:55:00,40.5,38.1,29.75,WNW,288,2.0,4.0,91,0.00,,---,0.10,VWS V14.01,2013-11-10 20:55:00,
2013-11-10 15:56:00,40.5,38.1,29.75,NW,311,1.0,4.0,91,0.00,,---,0.10,VWS V14.01,2013-11-10 20:56:00,
2013-11-10 16:00:00,40.4,38.0,29.75,WNW,295,1.0,4.0,91,0.00,,---,0.10,VWS V14.01,2013-11-10 21:00:00,
2013-11-10 16:01:00,40.4,38.0,29.75,WNW,288,1.0,2.0,91,0.00,,---,0.10,VWS V14.01,2013-11-10 21:01:00,
2013-11-10 16:02:00,40.4,38.0,29.75,WNW,283,2.0,3.0,91,0.00,,---,0.10,VWS V14.01,2013-11-10 21:02:00,
2013-11-10 16:03:00,40.4,38.3,29.75,WNW,283,2.0,3.0,92,0.00,,---,0.10,VWS V14.01,2013-11-10 21:03:00,
2013-11-10 16:05:00,40.3,38.2,29.75,WNW,295,0.0,3.0,92,0.00,,---,0.10,VWS V14.01,2013-11-10 21:05:00,
2013-11-10 16:06:00,40.3,38.2,29.75,WNW,295,1.0,3.0,92,0.00,,---,0.10,VWS V14.01,2013-11-10 21:06:00,
2013-11-10 16:08:00,40.3,38.2,29.75,NW,311,2.0,3.0,92,0.00,,---,0.10,VWS V14.01,2013-11-10 21:08:00,
2013-11-10 16:09:00,40.3,38.2,29.75,NE,34,1.0,3.0,92,0.00,,---,0.10,VWS V14.01,2013-11-10 21:09:00,
2013-11-10 16:10:00,40.3,38.2,29.75,NE,34,1.0,3.0,92,0.00,,---,0.10,VWS V14.01,2013-11-10 21:10:00,
2013-11-10 16:11:00,40.3,38.2,29.75,NNE,30,0.0,3.0,92,0.00,,---,0.10,VWS V14.01,2013-11-10 21:11:00,
2013-11-10 16:13:00,40.3,38.2,29.75,NW,326,2.0,3.0,92,0.00,,---,0.10,VWS V14.01,2013-11-10 21:13:00,
2013-11-10 16:15:00,40.2,38.1,29.75,NW,306,1.0,3.0,92,0.00,,---,0.10,VWS V14.01,2013-11-10 21:15:00,
2013-11-10 16:16:00,40.2,38.1,29.75,NW,309,1.0,3.0,92,0.00,,---,0.10,VWS V14.01,2013-11-10 21:16:00,
2013-11-10 16:17:00,40.1,38.0,29.75,NW,322,0.0,3.0,92,0.00,,---,0.10,VWS V14.01,2013-11-10 21:17:00,
2013-11-10 16:18:00,40.1,38.0,29.75,NW,322,0.0,3.0,92,0.00,,---,0.10,VWS V14.01,2013-11-10 21:18:00,
2013-11-10 16:19:00,40.1,38.0,29.75,NW,321,0.0,3.0,92,0.00,,---,0.10,VWS V14.01,2013-11-10 21:19:00,
2013-11-10 16:20:00,40.0,37.9,29.75,NW,321,1.0,3.0,92,0.00,,---,0.10,VWS V14.01,2013-11-10 21:20:00,
2013-11-10 16:23:00,40.0,37.9,29.75,NW,313,0.0,3.0,92,0.00,,---,0.10,VWS V14.01,2013-11-10 21:23:00,
2013-11-10 16:24:00,40.0,37.9,29.75,NW,313,0.0,3.0,92,0.00,,---,0.10,VWS V14.01,2013-11-10 21:24:00,
2013-11-10 16:25:00,40.0,37.9,29.75,NW,313,0.0,3.0,92,0.00,,---,0.10,VWS V14.01,2013-11-10 21:25:00,
2013-11-10 16:26:00,39.9,37.8,29.75,NW,313,0.0,3.0,92,0.00,,---,0.10,VWS V14.01,2013-11-10 21:26:00,
2013-11-10 16:28:00,39.9,37.8,29.75,NW,313,0.0,3.0,92,0.00,,---,0.10,VWS V14.01,2013-11-10 21:28:00,
2013-11-10 16:29:00,39.9,38.0,29.74,NW,313,0.0,3.0,93,0.00,,---,0.10,VWS V14.01,2013-11-10 21:29:00,
2013-11-10 16:31:00,39.9,38.0,29.75,WSW,252,0.0,0.0,93,0.00,,---,0.10,VWS V14.01,2013-11-10 21:31:00,
2013-11-10 16:34:00,39.9,38.0,29.75,WSW,245,1.0,1.0,93,0.00,,---,0.10,VWS V14.01,2013-11-10 21:34:00,
2013-11-10 16:35:00,40.0,38.1,29.75,WSW,254,0.0,1.0,93,0.00,,---,0.10,VWS V14.01,2013-11-10 21:35:00,
2013-11-10 16:36:00,40.0,38.1,29.75,WSW,254,0.0,1.0,93,0.00,,---,0.10,VWS V14.01,2013-11-10 21:36:00,
2013-11-10 16:37:00,40.0,38.1,29.75,WSW,255,0.0,1.0,93,0.00,,---,0.10,VWS V14.01,2013-11-10 21:37:00,
2013-11-10 16:39:00,40.0,38.1,29.75,WSW,255,0.0,1.0,93,0.00,,---,0.10,VWS V14.01,2013-11-10 21:39:00,
2013-11-10 16:40:00,40.0,38.1,29.75,WSW,255,0.0,1.0,93,0.00,,---,0.10,VWS V14.01,2013-11-10 21:40:00,
2013-11-10 16:41:00,40.0,38.1,29.75,WSW,255,1.0,1.0,93,0.00,,---,0.10,VWS V14.01,2013-11-10 21:41:00,
2013-11-10 16:42:00,40.0,38.1,29.75,WSW,255,0.0,1.0,93,0.00,,---,0.10,VWS V14.01,2013-11-10 21:42:00,
2013-11-10 16:45:00,40.0,38.1,29.75,West,267,1.0,1.0,93,0.00,,---,0.10,VWS V14.01,2013-11-10 21:45:00,
2013-11-10 16:46:00,40.0,38.1,29.76,NW,322,2.0,2.0,93,0.00,,---,0.10,VWS V14.01,2013-11-10 21:46:00,
2013-11-10 16:47:00,40.0,38.1,29.76,NW,320,2.0,2.0,93,0.00,,---,0.10,VWS V14.01,2013-11-10 21:47:00,
2013-11-10 16:51:00,39.9,38.0,29.76,NW,320,1.0,2.0,93,0.00,,---,0.10,VWS V14.01,2013-11-10 21:51:00,
2013-11-10 16:52:00,39.9,38.0,29.76,NW,320,1.0,2.0,93,0.00,,---,0.10,VWS V14.01,2013-11-10 21:52:00,
2013-11-10 16:53:00,39.9,38.0,29.76,WNW,295,2.0,2.0,93,0.00,,---,0.10,VWS V14.01,2013-11-10 21:53:00,
2013-11-10 16:56:00,39.9,38.0,29.76,WNW,297,0.0,2.0,93,0.00,,---,0.10,VWS V14.01,2013-11-10 21:56:00,
2013-11-10 16:57:00,39.8,38.0,29.76,WNW,297,0.0,2.0,93,0.00,,---,0.10,VWS V14.01,2013-11-10 21:57:00,
2013-11-10 16:58:00,39.8,38.0,29.76,WNW,298,1.0,2.0,93,0.00,,---,0.10,VWS V14.01,2013-11-10 21:58:00,
2013-11-10 17:00:00,39.8,38.0,29.76,WNW,300,0.0,2.0,93,0.00,,---,0.10,VWS V14.01,2013-11-10 22:00:00,
2013-11-10 17:02:00,39.8,38.0,29.76,WNW,300,1.0,1.0,93,0.00,,---,0.10,VWS V14.01,2013-11-10 22:02:00,
2013-11-10 17:03:00,39.8,38.0,29.76,WNW,299,1.0,1.0,93,0.00,,---,0.10,VWS V14.01,2013-11-10 22:03:00,
2013-11-10 17:04:00,39.8,38.2,29.76,WNW,300,0.0,1.0,94,0.00,,---,0.10,VWS V14.01,2013-11-10 22:04:00,
2013-11-10 17:07:00,39.9,38.3,29.76,WNW,286,0.0,1.0,94,0.00,,---,0.10,VWS V14.01,2013-11-10 22:07:00,
2013-11-10 17:09:00,39.9,38.3,29.76,WSW,252,1.0,2.0,94,0.00,,---,0.10,VWS V14.01,2013-11-10 22:09:00,
2013-11-10 17:10:00,39.9,38.3,29.76,WSW,242,2.0,2.0,94,0.00,,---,0.10,VWS V14.01,2013-11-10 22:10:00,
2013-11-10 17:13:00,40.0,38.4,29.76,West,260,2.0,3.0,94,0.00,,---,0.10,VWS V14.01,2013-11-10 22:13:00,
2013-11-10 17:14:00,40.1,38.5,29.76,West,273,1.0,3.0,94,0.00,,---,0.10,VWS V14.01,2013-11-10 22:14:00,
2013-11-10 17:15:00,40.1,38.5,29.76,West,267,1.0,3.0,94,0.00,,---,0.10,VWS V14.01,2013-11-10 22:15:00,
2013-11-10 17:19:00,40.0,38.4,29.76,WSW,252,2.0,3.0,94,0.00,,---,0.10,VWS V14.01,2013-11-10 22:19:00,
2013-11-10 17:20:00,40.0,38.4,29.76,West,259,0.0,3.0,94,0.00,,---,0.10,VWS V14.01,2013-11-10 22:20:00,
2013-11-10 17:21:00,40.0,38.4,29.76,West,267,1.0,3.0,94,0.00,,---,0.10,VWS V14.01,2013-11-10 22:21:00,
2013-11-10 17:22:00,40.0,38.4,29.76,West,259,2.0,3.0,94,0.00,,---,0.10,VWS V14.01,2013-11-10 22:22:00,
2013-11-10 17:25:00,40.0,38.4,29.76,West,262,2.0,3.0,94,0.00,,---,0.10,VWS V14.01,2013-11-10 22:25:00,
2013-11-10 17:26:00,40.0,38.4,29.76,West,274,2.0,3.0,94,0.00,,---,0.10,VWS V14.01,2013-11-10 22:26:00,
2013-11-10 17:27:00,40.0,38.4,29.76,West,260,3.0,3.0,94,0.00,,---,0.10,VWS V14.01,2013-11-10 22:27:00,
2013-11-10 17:30:00,40.1,38.5,29.76,WSW,245,3.0,5.0,94,0.00,,---,0.10,VWS V14.01,2013-11-10 22:30:00,
2013-11-10 17:31:00,40.1,38.5,29.76,WSW,245,3.0,3.0,94,0.00,,---,0.10,VWS V14.01,2013-11-10 22:31:00,
2013-11-10 17:32:00,40.2,38.6,29.76,West,267,2.0,3.0,94,0.00,,---,0.10,VWS V14.01,2013-11-10 22:32:00,
2013-11-10 17:33:00,40.2,38.6,29.76,West,279,3.0,3.0,94,0.00,,---,0.10,VWS V14.01,2013-11-10 22:33:00,
2013-11-10 17:36:00,40.3,38.7,29.76,WNW,293,1.0,3.0,94,0.00,,---,0.10,VWS V14.01,2013-11-10 22:36:00,
2013-11-10 17:37:00,40.3,38.7,29.76,NNW,343,2.0,3.0,94,0.00,,---,0.10,VWS V14.01,2013-11-10 22:37:00,
2013-11-10 17:38:00,40.3,38.7,29.76,West,269,1.0,3.0,94,0.00,,---,0.10,VWS V14.01,2013-11-10 22:38:00,
2013-11-10 17:40:00,40.4,38.8,29.76,WSW,257,2.0,3.0,94,0.00,,---,0.10,VWS V14.01,2013-11-10 22:40:00,
2013-11-10 17:41:00,40.4,38.8,29.76,West,270,4.0,5.0,94,0.00,,---,0.10,VWS V14.01,2013-11-10 22:41:00,
2013-11-10 17:42:00,40.4,38.8,29.76,WSW,255,1.0,5.0,94,0.00,,---,0.10,VWS V14.01,2013-11-10 22:42:00,
2013-11-10 17:44:00,40.5,38.9,29.76,SW,236,1.0,5.0,94,0.00,,---,0.10,VWS V14.01,2013-11-10 22:44:00,
2013-11-10 17:46:00,40.6,39.0,29.76,NW,309,1.0,5.0,94,0.00,,---,0.10,VWS V14.01,2013-11-10 22:46:00,
2013-11-10 17:48:00,40.7,39.1,29.76,West,267,2.0,5.0,94,0.00,,---,0.10,VWS V14.01,2013-11-10 22:48:00,
2013-11-10 17:49:00,40.7,39.1,29.76,SW,228,1.0,5.0,94,0.00,,---,0.10,VWS V14.01,2013-11-10 22:49:00,
2013-11-10 17:50:00,40.7,39.1,29.76,WNW,301,2.0,5.0,94,0.00,,---,0.10,VWS V14.01,2013-11-10 22:50:00,
2013-11-10 17:52:00,40.9,39.3,29.76,West,276,2.0,5.0,94,0.00,,---,0.10,VWS V14.01,2013-11-10 22:52:00,
2013-11-10 17:54:00,41.0,39.4,29.76,WSW,254,2.0,5.0,94,0.00,,---,0.10,VWS V14.01,2013-11-10 22:54:00,
2013-11-10 17:55:00,41.1,39.5,29.76,WSW,243,1.0,5.0,94,0.00,,---,0.10,VWS V14.01,2013-11-10 22:55:00,
2013-11-10 17:56:00,41.2,39.3,29.76,West,269,2.0,5.0,93,0.00,,---,0.10,VWS V14.01,2013-11-10 22:56:00,
2013-11-10 17:57:00,41.3,39.4,29.76,WSW,248,2.0,5.0,93,0.00,,---,0.10,VWS V14.01,2013-11-10 22:57:00,
2013-11-10 18:00:00,41.4,39.5,29.77,WNW,285,1.0,5.0,93,0.00,,---,0.10,VWS V14.01,2013-11-10 23:00:00,
2013-11-10 18:03:00,41.5,39.3,29.76,West,264,2.0,3.0,92,0.00,,---,0.10,VWS V14.01,2013-11-10 23:03:00,
2013-11-10 18:04:00,41.6,39.5,29.76,WNW,283,7.0,7.0,92,0.00,,---,0.10,VWS V14.01,2013-11-10 23:04:00,
2013-11-10 18:05:00,41.6,39.5,29.76,WSW,248,4.0,7.0,92,0.00,,---,0.10,VWS V14.01,2013-11-10 23:05:00,
2013-11-10 18:06:00,41.7,39.5,29.76,WNW,282,2.0,7.0,92,0.00,,---,0.10,VWS V14.01,2013-11-10 23:06:00,
2013-11-10 18:08:00,41.9,39.5,29.76,WSW,241,4.0,7.0,91,0.00,,---,0.10,VWS V14.01,2013-11-10 23:08:00,
2013-11-10 18:10:00,42.0,39.6,29.76,SW,232,6.0,7.0,91,0.00,,---,0.10,VWS V14.01,2013-11-10 23:10:00,
2013-11-10 18:11:00,42.0,39.6,29.76,WSW,246,5.0,7.0,91,0.00,,---,0.10,VWS V14.01,2013-11-10 23:11:00,
2013-11-10 18:12:00,42.1,39.4,29.76,SW,229,4.0,7.0,90,0.00,,---,0.10,VWS V14.01,2013-11-10 23:12:00,
2013-11-10 18:14:00,42.2,39.5,29.76,WSW,239,2.0,7.0,90,0.00,,---,0.10,VWS V14.01,2013-11-10 23:14:00,
2013-11-10 18:16:00,42.3,39.6,29.76,WSW,255,4.0,7.0,90,0.00,,---,0.10,VWS V14.01,2013-11-10 23:16:00,
2013-11-10 18:17:00,42.3,39.3,29.76,West,273,4.0,8.0,89,0.00,,---,0.10,VWS V14.01,2013-11-10 23:17:00,
2013-11-10 18:19:00,42.4,39.4,29.76,WSW,249,6.0,8.0,89,0.00,,---,0.10,VWS V14.01,2013-11-10 23:19:00,
2013-11-10 18:20:00,42.4,39.1,29.76,WNW,293,2.0,8.0,88,0.00,,---,0.10,VWS V14.01,2013-11-10 23:20:00,
2013-11-10 18:21:00,42.5,39.2,29.76,WSW,252,5.0,8.0,88,0.00,,---,0.10,VWS V14.01,2013-11-10 23:21:00,
2013-11-10 18:22:00,42.5,39.2,29.76,WSW,248,8.0,9.0,88,0.00,,---,0.10,VWS V14.01,2013-11-10 23:22:00,
2013-11-10 18:24:00,42.5,38.9,29.76,WSW,245,3.0,9.0,87,0.00,,---,0.10,VWS V14.01,2013-11-10 23:24:00,
2013-11-10 18:25:00,42.6,39.0,29.76,West,279,3.0,9.0,87,0.00,,---,0.10,VWS V14.01,2013-11-10 23:25:00,
2013-11-10 18:26:00,42.6,39.0,29.76,WNW,283,4.0,9.0,87,0.00,,---,0.10,VWS V14.01,2013-11-10 23:26:00,
2013-11-10 18:28:00,42.6,39.0,29.76,SW,226,6.0,9.0,87,0.00,,---,0.10,VWS V14.01,2013-11-10 23:28:00,
2013-11-10 18:31:00,42.7,38.8,29.76,SW,217,6.0,9.0,86,0.00,,---,0.10,VWS V14.01,2013-11-10 23:31:00,
2013-11-10 18:32:00,42.7,38.8,29.76,WNW,293,3.0,9.0,86,0.00,,---,0.10,VWS V14.01,2013-11-10 23:32:00,
2013-11-10 18:33:00,42.8,38.9,29.76,WSW,252,11.0,11.0,86,0.00,,---,0.10,VWS V14.01,2013-11-10 23:33:00,
2013-11-10 18:34:00,42.8,38.9,29.76,WSW,255,7.0,11.0,86,0.00,,---,0.10,VWS V14.01,2013-11-10 23:34:00,
2013-11-10 18:37:00,42.9,39.0,29.76,West,271,4.0,13.0,86,0.00,,---,0.10,VWS V14.01,2013-11-10 23:37:00,
2013-11-10 18:38:00,43.0,39.1,29.76,WNW,285,9.0,13.0,86,0.00,,---,0.10,VWS V14.01,2013-11-10 23:38:00,
2013-11-10 18:39:00,43.0,38.8,29.77,WSW,245,6.0,13.0,85,0.00,,---,0.10,VWS V14.01,2013-11-10 23:39:00,
2013-11-10 18:40:00,43.0,38.8,29.77,SW,215,7.0,13.0,85,0.00,,---,0.10,VWS V14.01,2013-11-10 23:40:00,
2013-11-10 18:41:00,42.9,38.7,29.77,WNW,284,7.0,13.0,85,0.00,,---,0.10,VWS V14.01,2013-11-10 23:41:00,
2013-11-10 18:42:00,43.0,38.8,29.77,West,266,6.0,13.0,85,0.00,,---,0.10,VWS V14.01,2013-11-10 23:42:00,
2013-11-10 18:44:00,43.0,38.8,29.77,WSW,249,6.0,13.0,85,0.00,,---,0.10,VWS V14.01,2013-11-10 23:44:00,
2013-11-10 18:45:00,43.0,38.8,29.77,SW,232,8.0,13.0,85,0.00,,---,0.10,VWS V14.01,2013-11-10 23:45:00,
2013-11-10 18:46:00,43.0,38.8,29.76,NW,316,4.0,13.0,85,0.00,,---,0.10,VWS V14.01,2013-11-10 23:46:00,
2013-11-10 18:47:00,42.9,38.7,29.77,SW,235,6.0,13.0,85,0.00,,---,0.10,VWS V14.01,2013-11-10 23:47:00,
2013-11-10 18:49:00,42.9,38.4,29.77,WSW,252,6.0,13.0,84,0.00,,---,0.10,VWS V14.01,2013-11-10 23:49:00,
2013-11-10 18:50:00,42.9,38.7,29.77,WSW,238,4.0,13.0,85,0.00,,---,0.10,VWS V14.01,2013-11-10 23:50:00,
2013-11-10 18:51:00,42.9,38.7,29.77,WSW,252,6.0,13.0,85,0.00,,---,0.10,VWS V14.01,2013-11-10 23:51:00,
2013-11-10 18:52:00,42.9,38.7,29.77,WSW,252,5.0,13.0,85,0.00,,---,0.10,VWS V14.01,2013-11-10 23:52:00,
2013-11-10 18:53:00,42.9,38.7,29.76,West,269,7.0,13.0,85,0.00,,---,0.10,VWS V14.01,2013-11-10 23:53:00,
2013-11-10 18:56:00,42.8,38.6,29.77,SW,225,6.0,13.0,85,0.00,,---,0.10,VWS V14.01,2013-11-10 23:56:00,
2013-11-10 18:57:00,42.8,38.6,29.77,West,266,4.0,13.0,85,0.00,,---,0.10,VWS V14.01,2013-11-10 23:57:00,
2013-11-10 18:58:00,42.8,38.6,29.77,WSW,244,4.0,13.0,85,0.00,,---,0.10,VWS V14.01,2013-11-10 23:58:00,
2013-11-10 18:59:00,42.8,38.6,29.77,WSW,243,6.0,13.0,85,0.00,,---,0.10,VWS V14.01,2013-11-10 23:59:00,
2013-11-10 19:02:00,42.8,38.6,29.77,West,260,5.0,12.0,85,0.00,,---,0.10,VWS V14.01,2013-11-11 00:02:00,
2013-11-10 19:03:00,42.8,38.6,29.77,WSW,248,9.0,12.0,85,0.00,,---,0.10,VWS V14.01,2013-11-11 00:03:00,
2013-11-10 19:04:00,42.7,38.5,29.77,SW,231,8.0,12.0,85,0.00,,---,0.10,VWS V14.01,2013-11-11 00:04:00,
2013-11-10 19:05:00,42.7,38.5,29.77,West,259,9.0,12.0,85,0.00,,---,0.10,VWS V14.01,2013-11-11 00:05:00,
2013-11-10 19:08:00,42.8,38.3,29.77,WNW,282,5.0,12.0,84,0.00,,---,0.10,VWS V14.01,2013-11-11 00:08:00,
2013-11-10 19:09:00,42.7,38.2,29.77,SW,231,3.0,12.0,84,0.00,,---,0.10,VWS V14.01,2013-11-11 00:09:00,
2013-11-10 19:10:00,42.7,38.2,29.77,WNW,282,4.0,12.0,84,0.00,,---,0.10,VWS V14.01,2013-11-11 00:10:00,
2013-11-10 19:11:00,42.7,38.2,29.77,WSW,245,4.0,12.0,84,0.00,,---,0.10,VWS V14.01,2013-11-11 00:11:00,
2013-11-10 19:14:00,42.7,38.2,29.77,WSW,246,2.0,12.0,84,0.00,,---,0.10,VWS V14.01,2013-11-11 00:14:00,
2013-11-10 19:15:00,42.7,38.2,29.77,WSW,244,5.0,12.0,84,0.00,,---,0.10,VWS V14.01,2013-11-11 00:15:00,
2013-11-10 19:16:00,42.7,38.2,29.77,WNW,294,5.0,12.0,84,0.00,,---,0.10,VWS V14.01,2013-11-11 00:16:00,
2013-11-10 19:17:00,42.7,38.2,29.77,SW,232,4.0,12.0,84,0.00,,---,0.10,VWS V14.01,2013-11-11 00:17:00,
2013-11-10 19:19:00,42.7,38.2,29.77,WNW,294,6.0,12.0,84,0.00,,---,0.10,VWS V14.01,2013-11-11 00:19:00,
2013-11-10 19:21:00,42.7,38.2,29.77,WSW,248,5.0,12.0,84,0.00,,---,0.10,VWS V14.01,2013-11-11 00:21:00,
2013-11-10 19:22:00,42.6,38.1,29.77,West,281,6.0,12.0,84,0.00,,---,0.10,VWS V14.01,2013-11-11 00:22:00,
2013-11-10 19:24:00,42.7,38.2,29.77,SW,225,8.0,12.0,84,0.00,,---,0.10,VWS V14.01,2013-11-11 00:24:00,
2013-11-10 19:25:00,42.6,38.1,29.77,WSW,238,5.0,12.0,84,0.00,,---,0.10,VWS V14.01,2013-11-11 00:25:00,
2013-11-10 19:26:00,42.7,38.2,29.77,SW,235,7.0,12.0,84,0.00,,---,0.10,VWS V14.01,2013-11-11 00:26:00,
2013-11-10 19:27:00,42.7,38.2,29.77,WSW,238,7.0,12.0,84,0.00,,---,0.10,VWS V14.01,2013-11-11 00:27:00,
2013-11-10 19:28:00,42.7,38.2,29.77,WNW,285,6.0,12.0,84,0.00,,---,0.10,VWS V14.01,2013-11-11 00:28:00,
2013-11-10 19:30:00,42.7,38.2,29.77,ESE,121,1.0,12.0,84,0.00,,---,0.10,VWS V14.01,2013-11-11 00:30:00,
2013-11-10 19:31:00,42.7,38.2,29.77,SW,227,4.0,6.0,84,0.00,,---,0.10,VWS V14.01,2013-11-11 00:31:00,
2013-11-10 19:32:00,42.7,38.2,29.77,WSW,240,1.0,6.0,84,0.00,,---,0.10,VWS V14.01,2013-11-11 00:32:00,
2013-11-10 19:33:00,42.7,38.2,29.77,West,265,9.0,10.0,84,0.00,,---,0.10,VWS V14.01,2013-11-11 00:33:00,
2013-11-10 19:34:00,42.8,38.0,29.77,West,276,6.0,12.0,83,0.00,,---,0.10,VWS V14.01,2013-11-11 00:34:00,
2013-11-10 19:35:00,42.8,38.0,29.77,SW,233,4.0,12.0,83,0.00,,---,0.10,VWS V14.01,2013-11-11 00:35:00,
2013-11-10 19:37:00,42.8,38.0,29.77,WNW,284,2.0,12.0,83,0.00,,---,0.10,VWS V14.01,2013-11-11 00:37:00,
2013-11-10 19:38:00,42.9,38.4,29.77,West,267,3.0,12.0,84,0.00,,---,0.10,VWS V14.01,2013-11-11 00:38:00,
2013-11-10 19:39:00,42.9,38.1,29.77,West,262,1.0,12.0,83,0.00,,---,0.10,VWS V14.01,2013-11-11 00:39:00,
2013-11-10 19:40:00,42.9,38.1,29.77,West,264,2.0,12.0,83,0.00,,---,0.10,VWS V14.01,2013-11-11 00:40:00,
2013-11-10 19:41:00,42.9,38.1,29.77,West,278,3.0,12.0,83,0.00,,---,0.10,VWS V14.01,2013-11-11 00:41:00,
2013-11-10 19:43:00,42.9,38.1,29.77,West,269,4.0,12.0,83,0.00,,---,0.10,VWS V14.01,2013-11-11 00:43:00,
2013-11-10 19:44:00,42.9,38.1,29.77,West,271,2.0,12.0,83,0.00,,---,0.10,VWS V14.01,2013-11-11 00:44:00,
2013-11-10 19:46:00,42.9,38.1,29.77,WSW,255,5.0,12.0,83,0.00,,---,0.10,VWS V14.01,2013-11-11 00:46:00,
2013-11-10 19:49:00,42.9,38.1,29.77,WSW,255,3.0,12.0,83,0.00,,---,0.10,VWS V14.01,2013-11-11 00:49:00,
2013-11-10 19:50:00,42.9,38.1,29.77,West,266,2.0,12.0,83,0.00,,---,0.10,VWS V14.01,2013-11-11 00:50:00,
2013-11-10 19:51:00,42.9,38.1,29.77,SSW,205,5.0,12.0,83,0.00,,---,0.10,VWS V14.01,2013-11-11 00:51:00,
2013-11-10 19:52:00,42.9,38.1,29.77,West,262,4.0,12.0,83,0.00,,---,0.10,VWS V14.01,2013-11-11 00:52:00,
2013-11-10 19:55:00,42.8,38.0,29.77,WSW,246,6.0,12.0,83,0.00,,---,0.10,VWS V14.01,2013-11-11 00:55:00,
2013-11-10 19:56:00,42.8,38.0,29.77,SW,235,7.0,12.0,83,0.00,,---,0.10,VWS V14.01,2013-11-11 00:56:00,
2013-11-10 19:57:00,42.8,38.0,29.77,SW,224,5.0,12.0,83,0.00,,---,0.10,VWS V14.01,2013-11-11 00:57:00,
2013-11-10 20:01:00,42.8,38.0,29.77,SW,214,4.0,4.0,83,0.00,,---,0.10,VWS V14.01,2013-11-11 01:01:00,
2013-11-10 20:02:00,42.8,38.0,29.77,WNW,293,5.0,8.0,83,0.00,,---,0.10,VWS V14.01,2013-11-11 01:02:00,
2013-11-10 20:06:00,42.7,37.9,29.77,SW,231,5.0,8.0,83,0.00,,---,0.10,VWS V14.01,2013-11-11 01:06:00,
2013-11-10 20:07:00,42.7,37.9,29.77,WNW,302,4.0,8.0,83,0.00,,---,0.10,VWS V14.01,2013-11-11 01:07:00,
2013-11-10 20:08:00,42.7,37.9,29.77,WNW,285,5.0,8.0,83,0.00,,---,0.10,VWS V14.01,2013-11-11 01:08:00,
2013-11-10 20:09:00,42.7,37.9,29.77,WNW,285,5.0,8.0,83,0.00,,---,0.10,VWS V14.01,2013-11-11 01:09:00,
2013-11-10 20:11:00,42.7,37.6,29.77,West,271,6.0,12.0,82,0.00,,---,0.10,VWS V14.01,2013-11-11 01:11:00,
2013-11-10 20:12:00,42.7,37.6,29.77,WSW,238,9.0,12.0,82,0.00,,---,0.10,VWS V14.01,2013-11-11 01:12:00,
2013-11-10 20:13:00,42.7,37.6,29.77,WSW,249,5.0,12.0,82,0.00,,---,0.10,VWS V14.01,2013-11-11 01:13:00,
2013-11-10 20:15:00,42.7,37.6,29.77,West,261,4.0,12.0,82,0.00,,---,0.10,VWS V14.01,2013-11-11 01:15:00,
2013-11-10 20:17:00,42.7,37.9,29.77,West,278,8.0,12.0,83,0.00,,---,0.10,VWS V14.01,2013-11-11 01:17:00,
2013-11-10 20:18:00,42.7,37.9,29.77,SW,228,8.0,12.0,83,0.00,,---,0.10,VWS V14.01,2013-11-11 01:18:00,
2013-11-10 20:19:00,42.7,37.6,29.77,SW,226,8.0,12.0,82,0.00,,---,0.10,VWS V14.01,2013-11-11 01:19:00,
2013-11-10 20:20:00,42.7,37.6,29.77,West,278,2.0,12.0,82,0.00,,---,0.10,VWS V14.01,2013-11-11 01:20:00,
2013-11-10 20:23:00,42.7,37.6,29.77,WSW,240,8.0,12.0,82,0.00,,---,0.10,VWS V14.01,2013-11-11 01:23:00,
2013-11-10 20:24:00,42.7,37.6,29.77,WSW,254,6.0,12.0,82,0.00,,---,0.10,VWS V14.01,2013-11-11 01:24:00,
2013-11-10 20:26:00,42.6,37.8,29.77,West,262,4.0,12.0,83,0.00,,---,0.10,VWS V14.01,2013-11-11 01:26:00,
2013-11-10 20:28:00,42.6,37.8,29.77,WSW,240,9.0,12.0,83,0.00,,---,0.10,VWS V14.01,2013-11-11 01:28:00,
2013-11-10 20:29:00,42.6,37.8,29.77,West,279,6.0,12.0,83,0.00,,---,0.10,VWS V14.01,2013-11-11 01:29:00,
2013-11-10 20:30:00,42.7,37.6,29.77,ESE,114,7.0,12.0,82,0.00,,---,0.10,VWS V14.01,2013-11-11 01:30:00,
2013-11-10 20:33:00,42.7,37.9,29.77,West,260,6.0,8.0,83,0.00,,---,0.10,VWS V14.01,2013-11-11 01:33:00,
2013-11-10 20:34:00,42.7,37.9,29.77,West,270,6.0,11.0,83,0.00,,---,0.10,VWS V14.01,2013-11-11 01:34:00,
2013-11-10 20:37:00,42.8,37.7,29.77,WSW,237,4.0,11.0,82,0.00,,---,0.10,VWS V14.01,2013-11-11 01:37:00,
2013-11-10 20:38:00,42.7,37.6,29.77,WSW,255,8.0,11.0,82,0.00,,---,0.10,VWS V14.01,2013-11-11 01:38:00,
2013-11-10 20:39:00,42.8,37.7,29.77,SW,224,6.0,11.0,82,0.00,,---,0.10,VWS V14.01,2013-11-11 01:39:00,
2013-11-10 20:41:00,42.8,38.0,29.77,SW,231,3.0,11.0,83,0.00,,---,0.10,VWS V14.01,2013-11-11 01:41:00,
2013-11-10 20:44:00,42.8,37.7,29.77,West,264,9.0,11.0,82,0.00,,---,0.10,VWS V14.01,2013-11-11 01:44:00,
2013-11-10 20:45:00,42.8,37.7,29.77,WSW,257,5.0,11.0,82,0.00,,---,0.10,VWS V14.01,2013-11-11 01:45:00,
2013-11-10 20:46:00,42.8,37.4,29.77,SW,232,7.0,11.0,81,0.00,,---,0.10,VWS V14.01,2013-11-11 01:46:00,
2013-11-10 20:47:00,42.9,37.5,29.77,NW,307,7.0,12.0,81,0.00,,---,0.10,VWS V14.01,2013-11-11 01:47:00,
2013-11-10 20:50:00,43.0,37.9,29.77,NW,326,2.0,12.0,82,0.00,,---,0.10,VWS V14.01,2013-11-11 01:50:00,
2013-11-10 20:51:00,43.0,37.9,29.77,SW,221,3.0,12.0,82,0.00,,---,0.10,VWS V14.01,2013-11-11 01:51:00,
2013-11-10 20:52:00,43.0,37.6,29.77,WNW,284,6.0,12.0,81,0.00,,---,0.10,VWS V14.01,2013-11-11 01:52:00,
2013-11-10 20:53:00,43.0,37.6,29.77,WSW,255,10.0,12.0,81,0.00,,---,0.10,VWS V14.01,2013-11-11 01:53:00,
2013-11-10 20:55:00,43.1,37.7,29.77,SW,222,6.0,12.0,81,0.00,,---,0.10,VWS V14.01,2013-11-11 01:55:00,
2013-11-10 20:57:00,43.1,37.7,29.77,West,269,9.0,12.0,81,0.00,,---,0.10,VWS V14.01,2013-11-11 01:57:00,
2013-11-10 20:58:00,43.1,37.7,29.77,WSW,242,5.0,12.0,81,0.00,,---,0.10,VWS V14.01,2013-11-11 01:58:00,
2013-11-10 21:00:00,43.1,37.7,29.77,SW,221,4.0,12.0,81,0.00,,---,0.10,VWS V14.01,2013-11-11 02:00:00,
2013-11-10 21:03:00,43.1,37.4,29.77,WSW,255,3.0,10.0,80,0.00,,---,0.10,VWS V14.01,2013-11-11 02:03:00,
2013-11-10 21:04:00,43.1,37.4,29.77,SW,233,6.0,10.0,80,0.00,,---,0.10,VWS V14.01,2013-11-11 02:04:00,
2013-11-10 21:05:00,43.1,37.7,29.78,West,277,5.0,10.0,81,0.00,,---,0.10,VWS V14.01,2013-11-11 02:05:00,
2013-11-10 21:06:00,43.1,37.7,29.77,West,262,6.0,10.0,81,0.00,,---,0.10,VWS V14.01,2013-11-11 02:06:00,
2013-11-10 21:09:00,43.1,37.7,29.78,WSW,239,5.0,10.0,81,0.00,,---,0.10,VWS V14.01,2013-11-11 02:09:00,
2013-11-10 21:10:00,43.1,37.7,29.77,WNW,285,0.0,10.0,81,0.00,,---,0.10,VWS V14.01,2013-11-11 02:10:00,
2013-11-10 21:11:00,43.1,38.0,29.78,WSW,244,9.0,10.0,82,0.00,,---,0.10,VWS V14.01,2013-11-11 02:11:00,
2013-11-10 21:12:00,43.1,37.7,29.78,WSW,242,11.0,11.0,81,0.00,,---,0.10,VWS V14.01,2013-11-11 02:12:00,
2013-11-10 21:13:00,43.1,37.4,29.78,SW,229,8.0,11.0,80,0.00,,---,0.10,VWS V14.01,2013-11-11 02:13:00,
2013-11-10 21:14:00,43.1,37.4,29.78,WSW,252,10.0,12.0,80,0.00,,---,0.10,VWS V14.01,2013-11-11 02:14:00,
2013-11-10 21:16:00,43.2,37.8,29.78,North,1,6.0,12.0,81,0.00,,---,0.10,VWS V14.01,2013-11-11 02:16:00,
2013-11-10 21:17:00,43.1,37.7,29.78,West,262,12.0,12.0,81,0.00,,---,0.10,VWS V14.01,2013-11-11 02:17:00,
2013-11-10 21:18:00,43.2,37.5,29.78,WSW,240,6.0,12.0,80,0.00,,---,0.10,VWS V14.01,2013-11-11 02:18:00,
2013-11-10 21:20:00,43.1,37.4,29.78,WNW,283,9.0,14.0,80,0.00,,---,0.10,VWS V14.01,2013-11-11 02:20:00,
2013-11-10 21:21:00,43.1,37.4,29.78,West,271,6.0,14.0,80,0.00,,---,0.10,VWS V14.01,2013-11-11 02:21:00,
2013-11-10 21:22:00,43.1,37.4,29.78,WSW,243,9.0,14.0,80,0.00,,---,0.10,VWS V14.01,2013-11-11 02:22:00,
2013-11-10 21:24:00,43.1,37.7,29.78,WSW,253,8.0,14.0,81,0.00,,---,0.10,VWS V14.01,2013-11-11 02:24:00,
2013-11-10 21:26:00,43.1,38.0,29.78,SW,236,3.0,14.0,82,0.00,,---,0.10,VWS V14.01,2013-11-11 02:26:00,
2013-11-10 21:27:00,43.2,37.8,29.78,WNW,290,6.0,14.0,81,0.00,,---,0.10,VWS V14.01,2013-11-11 02:27:00,
2013-11-10 21:29:00,43.1,37.7,29.78,West,276,4.0,14.0,81,0.00,,---,0.10,VWS V14.01,2013-11-11 02:29:00,
2013-11-10 21:30:00,43.0,37.3,29.78,West,262,3.0,14.0,80,0.00,,---,0.10,VWS V14.01,2013-11-11 02:30:00,
2013-11-10 21:31:00,43.0,37.6,29.78,SW,218,6.0,6.0,81,0.00,,---,0.10,VWS V14.01,2013-11-11 02:31:00,
2013-11-10 21:33:00,42.9,37.5,29.78,SSW,208,2.0,13.0,81,0.00,,---,0.10,VWS V14.01,2013-11-11 02:33:00,
2013-11-10 21:34:00,42.9,37.5,29.78,West,281,4.0,13.0,81,0.00,,---,0.10,VWS V14.01,2013-11-11 02:34:00,
2013-11-10 21:35:00,42.9,37.5,29.78,SW,232,5.0,13.0,81,0.00,,---,0.10,VWS V14.01,2013-11-11 02:35:00,
2013-11-10 21:36:00,42.9,37.5,29.78,SSW,211,6.0,13.0,81,0.00,,---,0.10,VWS V14.01,2013-11-11 02:36:00,
2013-11-10 21:38:00,42.9,37.8,29.78,South,181,2.0,13.0,82,0.00,,---,0.10,VWS V14.01,2013-11-11 02:38:00,
2013-11-10 21:39:00,42.9,37.8,29.78,WSW,252,7.0,13.0,82,0.00,,---,0.10,VWS V14.01,2013-11-11 02:39:00,
2013-11-10 21:40:00,42.9,37.5,29.78,WSW,257,5.0,13.0,81,0.00,,---,0.10,VWS V14.01,2013-11-11 02:40:00,
2013-11-10 21:41:00,42.9,37.5,29.78,East,94,3.0,13.0,81,0.00,,---,0.10,VWS V14.01,2013-11-11 02:41:00,
2013-11-10 21:42:00,42.9,37.5,29.78,WNW,298,2.0,13.0,81,0.00,,---,0.10,VWS V14.01,2013-11-11 02:42:00,
2013-11-10 21:44:00,42.8,37.4,29.78,ESE,112,5.0,13.0,81,0.00,,---,0.10,VWS V14.01,2013-11-11 02:44:00,
2013-11-10 21:45:00,42.8,37.4,29.78,SW,229,5.0,13.0,81,0.00,,---,0.10,VWS V14.01,2013-11-11 02:45:00,
2013-11-10 21:46:00,42.8,37.7,29.78,WNW,283,5.0,13.0,82,0.00,,---,0.10,VWS V14.01,2013-11-11 02:46:00,
2013-11-10 21:47:00,42.8,37.4,29.78,West,277,6.0,13.0,81,0.00,,---,0.10,VWS V14.01,2013-11-11 02:47:00,
2013-11-10 21:49:00,42.8,37.4,29.78,South,183,4.0,13.0,81,0.00,,---,0.10,VWS V14.01,2013-11-11 02:49:00,
2013-11-10 21:50:00,42.8,37.7,29.78,SW,227,4.0,13.0,82,0.00,,---,0.10,VWS V14.01,2013-11-11 02:50:00,
2013-11-10 21:51:00,42.8,37.7,29.78,WNW,293,8.0,13.0,82,0.00,,---,0.10,VWS V14.01,2013-11-11 02:51:00,
2013-11-10 21:52:00,42.8,37.7,29.78,WSW,252,7.0,13.0,82,0.00,,---,0.10,VWS V14.01,2013-11-11 02:52:00,
2013-11-10 21:54:00,42.8,37.4,29.78,WSW,257,3.0,13.0,81,0.00,,---,0.10,VWS V14.01,2013-11-11 02:54:00,
2013-11-10 21:55:00,42.8,37.7,29.78,West,262,0.0,13.0,82,0.00,,---,0.10,VWS V14.01,2013-11-11 02:55:00,
2013-11-10 21:56:00,42.7,37.6,29.78,NW,304,4.0,13.0,82,0.00,,---,0.10,VWS V14.01,2013-11-11 02:56:00,
2013-11-10 21:58:00,42.7,37.3,29.78,West,271,2.0,13.0,81,0.00,,---,0.10,VWS V14.01,2013-11-11 02:58:00,
2013-11-10 21:59:00,42.7,37.6,29.78,WSW,242,1.0,13.0,82,0.00,,---,0.10,VWS V14.01,2013-11-11 02:59:00,
2013-11-10 22:00:00,42.7,37.6,29.78,SW,217,5.0,13.0,82,0.00,,---,0.10,VWS V14.01,2013-11-11 03:00:00,
2013-11-10 22:01:00,42.7,37.6,29.78,West,277,4.0,6.0,82,0.00,,---,0.10,VWS V14.01,2013-11-11 03:01:00,
2013-11-10 22:03:00,42.7,37.6,29.78,WNW,283,2.0,6.0,82,0.00,,---,0.10,VWS V14.01,2013-11-11 03:03:00,
2013-11-10 22:05:00,42.7,37.6,29.78,SW,221,1.0,6.0,82,0.00,,---,0.10,VWS V14.01,2013-11-11 03:05:00,
2013-11-10 22:06:00,42.7,37.6,29.78,SW,214,2.0,6.0,82,0.00,,---,0.10,VWS V14.01,2013-11-11 03:06:00,
2013-11-10 22:07:00,42.6,37.5,29.78,WNW,284,4.0,6.0,82,0.00,,---,0.10,VWS V14.01,2013-11-11 03:07:00,
2013-11-10 22:11:00,42.5,37.4,29.78,WNW,289,0.0,6.0,82,0.00,,---,0.10,VWS V14.01,2013-11-11 03:11:00,
2013-11-10 22:13:00,42.5,37.4,29.78,WSW,239,2.0,6.0,82,0.00,,---,0.10,VWS V14.01,2013-11-11 03:13:00,
2013-11-10 22:16:00,42.4,37.3,29.78,SW,226,0.0,6.0,82,0.00,,---,0.10,VWS V14.01,2013-11-11 03:16:00,
2013-11-10 22:17:00,42.4,37.6,29.78,WSW,237,4.0,6.0,83,0.00,,---,0.10,VWS V14.01,2013-11-11 03:17:00,
2013-11-10 22:18:00,42.4,37.3,29.78,West,278,2.0,6.0,82,0.00,,---,0.10,VWS V14.01,2013-11-11 03:18:00,
2013-11-10 22:19:00,42.4,37.6,29.78,WSW,249,3.0,6.0,83,0.00,,---,0.10,VWS V14.01,2013-11-11 03:19:00,
2013-11-10 22:21:00,42.4,37.3,29.79,WSW,249,2.0,6.0,82,0.00,,---,0.10,VWS V14.01,2013-11-11 03:21:00,
2013-11-10 22:22:00,42.4,37.3,29.78,SW,233,5.0,6.0,82,0.00,,---,0.10,VWS V14.01,2013-11-11 03:22:00,
2013-11-10 22:23:00,42.4,37.3,29.79,West,271,4.0,6.0,82,0.00,,---,0.10,VWS V14.01,2013-11-11 03:23:00,
2013-11-10 22:24:00,42.4,37.3,29.79,WNW,285,7.0,8.0,82,0.00,,---,0.10,VWS V14.01,2013-11-11 03:24:00,
2013-11-10 22:25:00,42.4,37.3,29.79,WSW,252,8.0,8.0,82,0.00,,---,0.10,VWS V14.01,2013-11-11 03:25:00,
2013-11-10 22:27:00,42.4,37.3,29.79,West,273,3.0,8.0,82,0.00,,---,0.10,VWS V14.01,2013-11-11 03:27:00,
2013-11-10 22:28:00,42.4,37.3,29.79,NNW,333,3.0,8.0,82,0.00,,---,0.10,VWS V14.01,2013-11-11 03:28:00,
2013-11-10 22:29:00,42.4,37.3,29.79,WSW,254,2.0,8.0,82,0.00,,---,0.10,VWS V14.01,2013-11-11 03:29:00,
2013-11-10 22:30:00,42.4,37.3,29.79,WSW,245,5.0,8.0,82,0.00,,---,0.10,VWS V14.01,2013-11-11 03:30:00,
2013-11-10 22:31:00,42.4,37.3,29.79,WSW,255,5.0,6.0,82,0.00,,---,0.10,VWS V14.01,2013-11-11 03:31:00,
2013-11-10 22:33:00,42.5,37.1,29.79,NW,316,2.0,8.0,81,0.00,,---,0.10,VWS V14.01,2013-11-11 03:33:00,
2013-11-10 22:35:00,42.5,37.4,29.79,WSW,244,0.0,8.0,82,0.00,,---,0.10,VWS V14.01,2013-11-11 03:35:00,
2013-11-10 22:36:00,42.5,37.4,29.79,SW,235,6.0,8.0,82,0.00,,---,0.10,VWS V14.01,2013-11-11 03:36:00,
2013-11-10 22:37:00,42.5,37.4,29.79,WSW,237,11.0,11.0,82,0.00,,---,0.10,VWS V14.01,2013-11-11 03:37:00,
2013-11-10 22:39:00,42.5,37.1,29.79,WNW,286,2.0,11.0,81,0.00,,---,0.10,VWS V14.01,2013-11-11 03:39:00,
2013-11-10 22:41:00,42.5,37.1,29.79,WSW,242,6.0,11.0,81,0.00,,---,0.10,VWS V14.01,2013-11-11 03:41:00,
2013-11-10 22:42:00,42.5,37.1,29.79,WSW,249,6.0,12.0,81,0.00,,---,0.10,VWS V14.01,2013-11-11 03:42:00,
2013-11-10 22:43:00,42.6,37.2,29.79,WSW,253,7.0,12.0,81,0.00,,---,0.10,VWS V14.01,2013-11-11 03:43:00,
2013-11-10 22:44:00,42.5,36.8,29.79,West,264,12.0,12.0,80,0.00,,---,0.10,VWS V14.01,2013-11-11 03:44:00,
2013-11-10 22:47:00,42.6,36.9,29.79,WNW,284,8.0,14.0,80,0.00,,---,0.10,VWS V14.01,2013-11-11 03:47:00,
2013-11-10 22:48:00,42.5,36.8,29.79,WNW,283,4.0,14.0,80,0.00,,---,0.10,VWS V14.01,2013-11-11 03:48:00,
2013-11-10 22:49:00,42.5,37.1,29.79,WNW,285,6.0,14.0,81,0.00,,---,0.10,VWS V14.01,2013-11-11 03:49:00,
2013-11-10 22:50:00,42.5,37.1,29.79,West,263,3.0,14.0,81,0.00,,---,0.10,VWS V14.01,2013-11-11 03:50:00,
2013-11-10 22:52:00,42.5,37.1,29.79,WSW,246,3.0,14.0,81,0.00,,---,0.10,VWS V14.01,2013-11-11 03:52:00,
2013-11-10 22:54:00,42.5,37.1,29.79,West,261,8.0,14.0,81,0.00,,---,0.10,VWS V14.01,2013-11-11 03:54:00,
2013-11-10 22:55:00,42.5,37.1,29.79,SW,236,6.0,14.0,81,0.00,,---,0.10,VWS V14.01,2013-11-11 03:55:00,
2013-11-10 22:59:00,42.5,37.1,29.79,WSW,247,2.0,14.0,81,0.00,,---,0.10,VWS V14.01,2013-11-11 03:59:00,
2013-11-10 23:00:00,42.5,37.1,29.79,NW,304,3.0,14.0,81,0.00,,---,0.10,VWS V14.01,2013-11-11 04:00:00,
2013-11-10 23:01:00,42.5,37.1,29.79,WSW,243,2.0,3.0,81,0.00,,---,0.10,VWS V14.01,2013-11-11 04:01:00,
2013-11-10 23:05:00,42.4,37.3,29.80,WNW,285,2.0,7.0,82,0.00,,---,0.10,VWS V14.01,2013-11-11 04:05:00,
2013-11-10 23:06:00,42.4,37.0,29.79,WSW,239,6.0,8.0,81,0.00,,---,0.10,VWS V14.01,2013-11-11 04:06:00,
2013-11-10 23:07:00,42.4,37.0,29.80,SW,222,3.0,8.0,81,0.00,,---,0.10,VWS V14.01,2013-11-11 04:07:00,
2013-11-10 23:11:00,42.4,37.0,29.80,SW,219,8.0,11.0,81,0.00,,---,0.10,VWS V14.01,2013-11-11 04:11:00,
2013-11-10 23:12:00,42.4,37.0,29.80,West,277,10.0,11.0,81,0.00,,---,0.10,VWS V14.01,2013-11-11 04:12:00,
2013-11-10 23:13:00,42.4,37.0,29.80,WNW,300,4.0,11.0,81,0.00,,---,0.10,VWS V14.01,2013-11-11 04:13:00,
2013-11-10 23:15:00,42.4,37.0,29.80,SW,228,4.0,11.0,81,0.00,,---,0.10,VWS V14.01,2013-11-11 04:15:00,
2013-11-10 23:17:00,42.4,36.7,29.80,SW,231,13.0,13.0,80,0.00,,---,0.10,VWS V14.01,2013-11-11 04:17:00,
2013-11-10 23:18:00,42.4,37.0,29.80,West,279,4.0,13.0,81,0.00,,---,0.10,VWS V14.01,2013-11-11 04:18:00,
2013-11-10 23:19:00,42.4,37.0,29.80,West,274,4.0,13.0,81,0.00,,---,0.10,VWS V14.01,2013-11-11 04:19:00,
2013-11-10 23:20:00,42.4,37.0,29.80,West,266,7.0,13.0,81,0.00,,---,0.10,VWS V14.01,2013-11-11 04:20:00,
2013-11-10 23:21:00,42.4,37.0,29.81,NW,305,5.0,13.0,81,0.00,,---,0.10,VWS V14.01,2013-11-11 04:21:00,
2013-11-10 23:23:00,42.4,37.0,29.80,West,277,9.0,15.0,81,0.00,,---,0.10,VWS V14.01,2013-11-11 04:23:00,
2013-11-10 23:24:00,42.4,37.0,29.81,NW,309,4.0,15.0,81,0.00,,---,0.10,VWS V14.01,2013-11-11 04:24:00,
2013-11-10 23:25:00,42.4,37.0,29.81,West,267,4.0,15.0,81,0.00,,---,0.10,VWS V14.01,2013-11-11 04:25:00,
2013-11-10 23:26:00,42.4,37.0,29.81,SW,233,4.0,15.0,81,0.00,,---,0.10,VWS V14.01,2013-11-11 04:26:00,
2013-11-10 23:27:00,42.4,37.0,29.81,WSW,256,6.0,15.0,81,0.00,,---,0.10,VWS V14.01,2013-11-11 04:27:00,
2013-11-10 23:29:00,42.3,36.9,29.81,WNW,286,9.0,15.0,81,0.00,,---,0.10,VWS V14.01,2013-11-11 04:29:00,
2013-11-10 23:30:00,42.2,37.1,29.81,WNW,285,8.0,15.0,82,0.00,,---,0.10,VWS V14.01,2013-11-11 04:30:00,
2013-11-10 23:32:00,42.1,37.0,29.81,WNW,296,6.0,10.0,82,0.00,,---,0.10,VWS V14.01,2013-11-11 04:32:00,
2013-11-10 23:35:00,41.8,36.7,29.81,WNW,293,9.0,18.0,82,0.00,,---,0.10,VWS V14.01,2013-11-11 04:35:00,
2013-11-10 23:36:00,41.7,36.9,29.81,WSW,257,7.0,18.0,83,0.00,,---,0.10,VWS V14.01,2013-11-11 04:36:00,
2013-11-10 23:38:00,41.5,37.0,29.81,WNW,296,8.0,18.0,84,0.00,,---,0.10,VWS V14.01,2013-11-11 04:38:00,
2013-11-10 23:40:00,41.3,37.1,29.81,North,349,8.0,18.0,85,0.00,,---,0.10,VWS V14.01,2013-11-11 04:40:00,
2013-11-10 23:41:00,41.2,37.0,29.81,WNW,285,8.0,18.0,85,0.00,,---,0.10,VWS V14.01,2013-11-11 04:41:00,
2013-11-10 23:42:00,41.2,37.0,29.82,NW,314,4.0,18.0,85,0.00,,---,0.10,VWS V14.01,2013-11-11 04:42:00,
2013-11-10 23:44:00,41.0,36.8,29.82,NW,304,5.0,18.0,85,0.00,,---,0.10,VWS V14.01,2013-11-11 04:44:00,
2013-11-10 23:45:00,40.9,36.5,29.82,West,259,7.0,18.0,84,0.00,,---,0.10,VWS V14.01,2013-11-11 04:45:00,
2013-11-10 23:47:00,40.8,36.0,29.82,West,280,8.0,18.0,83,0.00,,---,0.10,VWS V14.01,2013-11-11 04:47:00,
2013-11-10 23:49:00,40.6,35.8,29.82,WSW,242,8.0,18.0,83,0.00,,---,0.10,VWS V14.01,2013-11-11 04:49:00,
2013-11-10 23:50:00,40.6,35.5,29.82,NW,316,4.0,18.0,82,0.00,,---,0.10,VWS V14.01,2013-11-11 04:50:00,
2013-11-10 23:51:00,40.6,35.5,29.82,West,277,9.0,18.0,82,0.00,,---,0.10,VWS V14.01,2013-11-11 04:51:00,
2013-11-10 23:52:00,40.5,35.5,29.82,NW,308,2.0,18.0,82,0.00,,---,0.10,VWS V14.01,2013-11-11 04:52:00,
2013-11-10 23:53:00,40.5,35.5,29.82,WNW,284,10.0,18.0,82,0.00,,---,0.10,VWS V14.01,2013-11-11 04:53:00,
2013-11-10 23:54:00,40.5,35.5,29.82,NW,311,2.0,18.0,82,0.00,,---,0.10,VWS V14.01,2013-11-11 04:54:00,
2013-11-10 23:55:00,40.5,35.5,29.82,NNW,336,6.0,18.0,82,0.00,,---,0.10,VWS V14.01,2013-11-11 04:55:00,
2013-11-10 23:56:00,40.5,35.5,29.82,WSW,248,12.0,18.0,82,0.00,,---,0.10,VWS V14.01,2013-11-11 04:56:00,
2013-11-10 23:57:00,40.5,35.5,29.82,WSW,245,11.0,18.0,82,0.00,,---,0.10,VWS V14.01,2013-11-11 04:57:00,
2013-11-10 23:58:00,40.5,35.5,29.82,WSW,239,6.0,18.0,82,0.00,,---,0.10,VWS V14.01,2013-11-11 04:58:00,